OK2JF-6 Weather Reports


time (UTC)temp
C
wind
direction
speed
KPH
gust
KPH
rain 1hr
cm
rain 24hr
cm
rain mn
cm
humidity
%
barometer
mb
20260507034203 10 252 0.0 3.2 0.00 0.00 0.00 88 1080.4
20260507034103 10 249 0.0 3.2 0.00 0.00 0.00 88 1080.3
20260507033903 10 260 0.0 3.2 0.00 0.00 0.00 88 1080.3
20260507033803 10 260 0.0 3.2 0.00 0.00 0.00 88 1080.5
20260507033703 10 260 0.0 3.2 0.00 0.00 0.00 88 1080.3
20260507033617 10 260 0.0 3.2 0.00 0.00 0.00 88 1080.3
20260507033603 10 260 0.0 3.2 0.00 0.00 0.00 89 1080.4
20260507033503 10 260 0.0 3.2 0.00 0.00 0.00 88 1080.3
20260507033303 10 261 0.0 3.2 0.00 0.00 0.00 89 1080.3
20260507033217 10 264 0.0 1.6 0.00 0.00 0.00 89 1080.3
20260507033203 10 269 0.0 1.6 0.00 0.00 0.00 88 1080.4
20260507033103 10 287 0.0 1.6 0.00 0.00 0.00 88 1080.3
20260507033016 10 299 0.0 3.2 0.00 0.00 0.00 88 1080.3
20260507032903 10 315 0.0 3.2 0.00 0.00 0.00 88 1080.5
20260507032703 10 315 0.0 3.2 0.00 0.00 0.00 88 1080.3
20260507032603 10 315 0.0 3.2 0.00 0.00 0.00 88 1080.3
20260507032503 10 310 0.0 3.2 0.00 0.00 0.00 88 1080.2
20260507032403 10 306 0.0 3.2 0.00 0.00 0.00 88 1080.1
20260507032316 10 306 0.0 3.2 0.00 0.00 0.00 88 1080.1
20260507032305 10 306 0.0 3.2 0.00 0.00 0.00 88 1080.2
20260507032203 10 289 0.0 3.2 0.00 0.00 0.00 88 1080.5
20260507032003 10 214 0.0 6.4 0.00 0.00 0.00 88 1080.3
20260507031903 10 210 0.0 6.4 0.00 0.00 0.00 88 1080.2
20260507031803 10 210 0.0 6.4 0.00 0.00 0.00 88 1080.2
20260507031703 10 210 1.6 6.4 0.00 0.00 0.00 88 1080.0
20260507031603 10 209 1.6 6.4 0.00 0.00 0.00 89 1080.4
20260507031503 10 208 1.6 6.4 0.00 0.00 0.00 89 1080.4
20260507031403 10 205 1.6 6.4 0.00 0.00 0.00 89 1080.4
20260507031303 10 205 1.6 6.4 0.00 0.00 0.00 89 1080.4
20260507031103 10 208 1.6 6.4 0.00 0.00 0.00 88 1080.4
20260507031003 10 209 0.0 4.8 0.00 0.00 0.00 89 1080.0
20260507030917 10 209 0.0 4.8 0.00 0.00 0.00 88 1080.0
20260507030903 10 209 0.0 4.8 0.00 0.00 0.00 88 1080.4
20260507030817 10 209 0.0 4.8 0.00 0.00 0.00 89 1080.4
20260507030803 10 209 0.0 4.8 0.00 0.00 0.00 89 1080.2
20260507030616 10 210 0.0 4.8 0.00 0.00 0.00 87 1080.2
20260507030503 10 216 0.0 3.2 0.00 0.00 0.00 87 1080.2
20260507030418 10 220 0.0 1.6 0.00 0.00 0.00 88 1080.2
20260507030303 10 0 0.0 0.0 0.00 0.00 0.00 87 1080.3
20260507030003 10 0 0.0 0.0 0.00 0.00 0.00 87 1080.2
20260507025903 10 0 0.0 0.0 0.00 0.00 0.00 87 1080.3
20260507025803 10 0 0.0 0.0 0.00 0.00 0.00 87 1080.3
20260507025703 10 231 0.0 1.6 0.00 0.00 0.00 87 1080.2
20260507025603 10 231 0.0 1.6 0.00 0.00 0.00 87 1080.3
20260507025503 10 231 0.0 1.6 0.00 0.00 0.00 87 1080.3
20260507025403 10 219 0.0 1.6 0.00 0.00 0.00 87 1080.3
20260507025306 10 215 0.0 3.2 0.00 0.00 0.00 87 1080.1
20260507025203 10 210 0.0 3.2 0.00 0.00 0.00 87 1080.5
20260507025103 10 208 0.0 3.2 0.00 0.00 0.00 87 1080.3
20260507025003 10 207 0.0 3.2 0.00 0.00 0.00 87 1080.3
20260507024916 10 205 0.0 3.2 0.00 0.00 0.00 87 1080.3
20260507024903 10 205 0.0 3.2 0.00 0.00 0.00 87 1080.4
20260507024803 10 204 0.0 3.2 0.00 0.00 0.00 88 1080.1
20260507024603 10 201 1.6 3.2 0.00 0.00 0.00 87 1080.3
20260507024503 10 202 1.6 3.2 0.00 0.00 0.00 87 1080.1
20260507024403 10 203 1.6 3.2 0.00 0.00 0.00 88 1080.0
20260507024316 10 202 1.6 3.2 0.00 0.00 0.00 87 1080.0
20260507024303 10 202 1.6 3.2 0.00 0.00 0.00 87 1080.2
20260507024203 10 202 0.0 3.2 0.00 0.00 0.00 87 1080.2
20260507024003 10 200 0.0 3.2 0.00 0.00 0.00 87 1080.2
20260507023903 10 203 0.0 1.6 0.00 0.00 0.00 87 1080.3
20260507023803 10 205 0.0 1.6 0.00 0.00 0.00 87 1080.3
20260507023703 10 219 0.0 1.6 0.00 0.00 0.00 87 1080.1
20260507023603 10 225 0.0 1.6 0.00 0.00 0.00 87 1080.1
20260507023503 10 225 0.0 1.6 0.00 0.00 0.00 87 1080.1
20260507023403 10 0 0.0 0.0 0.00 0.00 0.00 87 1080.0
20260507023318 10 0 0.0 0.0 0.00 0.00 0.00 87 1080.0
20260507023203 10 0 0.0 0.0 0.00 0.00 0.00 87 1080.2
20260507023003 10 0 0.0 0.0 0.00 0.00 0.00 87 1080.2
20260507022903 10 222 0.0 1.6 0.00 0.00 0.00 87 1080.1
20260507022803 10 230 0.0 3.2 0.00 0.00 0.00 87 1079.9
20260507022703 10 230 0.0 3.2 0.00 0.00 0.00 87 1080.1
20260507022603 10 230 0.0 3.2 0.00 0.00 0.00 87 1080.3
20260507022503 10 230 0.0 3.2 0.00 0.00 0.00 87 1080.0
20260507022403 10 230 0.0 3.2 0.00 0.00 0.00 87 1079.9
20260507022306 10 230 0.0 3.2 0.00 0.00 0.00 87 1080.2
20260507022203 10 230 0.0 3.2 0.00 0.00 0.00 87 1080.2
20260507022103 10 230 0.0 3.2 0.00 0.00 0.00 87 1080.1
20260507021903 10 233 0.0 3.2 0.00 0.00 0.00 87 1080.3
20260507021803 10 289 0.0 3.2 0.00 0.00 0.00 87 1080.2
20260507021703 10 277 0.0 3.2 0.00 0.00 0.00 87 1080.3
20260507021603 10 267 0.0 3.2 0.00 0.00 0.00 87 1080.1
20260507021503 10 272 0.0 4.8 0.00 0.00 0.00 87 1080.2
20260507021404 10 269 0.0 4.8 0.00 0.00 0.00 87 1080.1
20260507021318 10 267 0.0 4.8 0.00 0.00 0.00 87 1080.1
20260507021303 10 267 0.0 4.8 0.00 0.00 0.00 87 1080.4
20260507021203 10 266 0.0 4.8 0.00 0.00 0.00 87 1079.9
20260507021003 10 263 0.0 4.8 0.00 0.00 0.00 87 1080.0
20260507020903 10 261 0.0 4.8 0.00 0.00 0.00 87 1080.1
20260507020803 10 260 0.0 4.8 0.00 0.00 0.00 87 1079.9
20260507020703 10 258 0.0 4.8 0.00 0.00 0.00 87 1080.1
20260507020603 10 256 0.0 4.8 0.00 0.00 0.00 87 1080.1
20260507020503 10 246 0.0 1.6 0.00 0.00 0.00 87 1080.0
20260507020403 10 239 0.0 6.4 0.00 0.00 0.00 87 1080.1
20260507020318 10 246 0.0 6.4 0.00 0.00 0.00 87 1080.1
20260507020303 10 243 0.0 6.4 0.00 0.00 0.00 87 1080.1
20260507020203 10 242 1.6 6.4 0.00 0.00 0.00 87 1080.0
20260507020003 10 242 1.6 6.4 0.00 0.00 0.00 87 1080.0
20260507015903 10 242 1.6 6.4 0.00 0.00 0.00 87 1080.1
20260507015803 10 244 1.6 6.4 0.00 0.00 0.00 87 1080.0
20260507015717 10 250 1.6 6.4 0.00 0.00 0.00 87 1080.0
20260507015703 10 253 1.6 6.4 0.00 0.00 0.00 87 1079.9
20260507015603 10 256 1.6 6.4 0.00 0.00 0.00 87 1079.9
20260507015517 10 255 1.6 6.4 0.00 0.00 0.00 87 1079.9
20260507015403 10 257 1.6 4.8 0.00 0.00 0.00 87 1079.7
20260507015203 10 265 1.6 4.8 0.00 0.00 0.00 86 1079.9
20260507015103 10 266 1.6 4.8 0.00 0.00 0.00 86 1080.0
20260507015003 10 264 1.6 4.8 0.00 0.00 0.00 86 1079.8
20260507014916 10 262 1.6 4.8 0.00 0.00 0.00 86 1079.8
20260507014903 10 261 1.6 4.8 0.00 0.00 0.00 86 1079.6
20260507014817 10 260 1.6 4.8 0.00 0.00 0.00 86 1079.6
20260507014803 11 260 1.6 4.8 0.00 0.00 0.00 86 1079.6
20260507014503 11 257 1.6 4.8 0.00 0.00 0.00 87 1079.5
20260507014403 11 256 1.6 4.8 0.00 0.00 0.00 87 1079.7
20260507014303 11 251 1.6 4.8 0.00 0.00 0.00 87 1079.6
20260507014203 11 246 1.6 4.8 0.00 0.00 0.00 87 1079.6
20260507014103 11 244 1.6 4.8 0.00 0.00 0.00 87 1079.5
20260507014003 11 245 1.6 4.8 0.00 0.00 0.00 87 1079.6
20260507013903 11 244 1.6 4.8 0.00 0.00 0.00 87 1079.5
20260507013803 11 245 1.6 4.8 0.00 0.00 0.00 86 1079.5
20260507013703 11 244 1.6 4.8 0.00 0.00 0.00 87 1079.6
20260507013603 11 247 1.6 3.2 0.00 0.00 0.00 86 1079.6
20260507013503 11 247 1.6 3.2 0.00 0.00 0.00 86 1079.6
20260507013403 11 254 1.6 3.2 0.00 0.00 0.00 86 1079.7
20260507013303 11 261 1.6 3.2 0.00 0.00 0.00 86 1079.6
20260507013203 11 272 1.6 3.2 0.00 0.00 0.00 86 1079.6
20260507013103 11 280 1.6 3.2 0.00 0.00 0.00 86 1079.6
20260507013003 11 286 1.6 3.2 0.00 0.00 0.00 86 1079.5
20260507012903 11 292 1.6 3.2 0.00 0.00 0.00 86 1079.4
20260507012803 11 297 1.6 3.2 0.00 0.00 0.00 87 1079.4
20260507012703 11 297 1.6 3.2 0.00 0.00 0.00 87 1079.5
20260507012603 11 287 1.6 3.2 0.00 0.00 0.00 87 1079.4
20260507012503 11 282 1.6 3.2 0.00 0.00 0.00 87 1079.4
20260507012403 11 276 1.6 3.2 0.00 0.00 0.00 87 1079.4
20260507012306 11 267 1.6 3.2 0.00 0.00 0.00 87 1079.3
20260507012203 11 260 1.6 4.8 0.00 0.00 0.00 87 1079.6
20260507012103 11 255 1.6 4.8 0.00 0.00 0.00 87 1079.7
20260507012017 11 255 1.6 4.8 0.00 0.00 0.00 86 1079.7
20260507012003 11 252 1.6 4.8 0.00 0.00 0.00 86 1079.8
20260507011903 11 248 1.6 4.8 0.00 0.00 0.00 86 1079.7
20260507011817 11 247 1.6 4.8 0.00 0.00 0.00 86 1079.7
20260507011703 11 246 1.6 4.8 0.00 0.00 0.00 86 1079.6
20260507011618 11 246 1.6 4.8 0.00 0.00 0.00 87 1079.6
20260507011516 11 246 1.6 4.8 0.00 0.00 0.00 87 1079.8
20260507011503 11 247 1.6 4.8 0.00 0.00 0.00 87 1079.8
20260507011203 11 244 1.6 4.8 0.00 0.00 0.00 87 1079.7
20260507011103 11 244 1.6 4.8 0.00 0.00 0.00 87 1079.5
20260507011003 11 244 1.6 4.8 0.00 0.00 0.00 87 1079.8
20260507010918 11 242 1.6 4.8 0.00 0.00 0.00 87 1079.8
20260507010903 11 240 1.6 4.8 0.00 0.00 0.00 87 1079.8
20260507010817 11 236 1.6 4.8 0.00 0.00 0.00 87 1079.8
20260507010503 11 232 1.6 6.4 0.00 0.00 0.00 87 1079.7
20260507010403 11 232 1.6 6.4 0.00 0.00 0.00 87 1079.7
20260507010303 11 232 1.6 6.4 0.00 0.00 0.00 87 1079.7
20260507010203 11 226 1.6 6.4 0.00 0.00 0.00 87 1079.7
20260507010003 11 224 1.6 6.4 0.00 0.00 0.00 87 1079.7
20260507005903 11 231 1.6 6.4 0.00 0.00 0.00 87 1079.5
20260507005803 11 240 1.6 6.4 0.00 0.00 0.00 87 1079.5
20260507005703 11 244 1.6 6.4 0.00 0.00 0.00 87 1079.6
20260507005603 11 247 1.6 6.4 0.00 0.00 0.00 88 1079.4
20260507005503 11 250 1.6 6.4 0.00 0.00 0.00 88 1079.5
20260507005403 11 253 3.2 6.4 0.00 0.00 0.00 87 1079.4
20260507005305 11 253 3.2 6.4 0.00 0.00 0.00 87 1079.4
20260507005203 11 259 3.2 6.4 0.00 0.00 0.00 87 1079.3
20260507005103 11 262 3.2 6.4 0.00 0.00 0.00 87 1079.5
20260507005003 11 262 3.2 6.4 0.00 0.00 0.00 88 1079.3
20260507004903 11 262 3.2 6.4 0.00 0.00 0.00 87 1079.5
20260507004803 11 258 3.2 6.4 0.00 0.00 0.00 87 1079.5
20260507004717 11 259 3.2 6.4 0.00 0.00 0.00 87 1079.5
20260507004703 11 258 3.2 6.4 0.00 0.00 0.00 88 1079.5
20260507004603 11 258 3.2 6.4 0.00 0.00 0.00 88 1079.5
20260507004516 11 256 3.2 6.4 0.00 0.00 0.00 88 1079.5
20260507004403 11 256 3.2 6.4 0.00 0.00 0.00 88 1079.4
20260507004203 11 260 3.2 6.4 0.00 0.00 0.00 87 1079.3
20260507004103 11 256 3.2 9.7 0.00 0.00 0.00 87 1079.4
20260507004003 11 253 3.2 9.7 0.00 0.00 0.00 87 1079.3
20260507003903 11 250 3.2 11.3 0.00 0.00 0.00 87 1079.3
20260507003816 11 249 3.2 11.3 0.00 0.00 0.00 87 1079.3
20260507003803 11 249 3.2 11.3 0.00 0.00 0.00 87 1079.4
20260507003703 11 242 3.2 11.3 0.00 0.00 0.00 87 1079.3
20260507003503 11 234 3.2 11.3 0.00 0.00 0.00 87 1079.4
20260507003417 11 225 3.2 11.3 0.00 0.00 0.00 87 1079.4
20260507003403 11 222 3.2 11.3 0.00 0.00 0.00 87 1079.4
20260507003303 11 213 3.2 11.3 0.00 0.00 0.00 87 1079.4
20260507003103 11 201 3.2 11.3 0.00 0.00 0.00 87 1079.4
20260507003003 11 199 3.2 11.3 0.00 0.00 0.00 86 1079.5
20260507002903 11 197 3.2 11.3 0.00 0.00 0.00 86 1079.6
20260507002816 11 199 3.2 11.3 0.00 0.00 0.00 86 1079.6
20260507002803 11 199 3.2 11.3 0.00 0.00 0.00 86 1079.5
20260507002703 11 200 3.2 11.3 0.00 0.00 0.00 87 1079.5
20260507002503 11 200 3.2 11.3 0.00 0.00 0.00 86 1079.3
20260507002403 11 200 3.2 11.3 0.00 0.00 0.00 86 1079.5
20260507002317 11 198 1.6 6.4 0.00 0.00 0.00 86 1079.5
20260507002306 11 198 1.6 6.4 0.00 0.00 0.00 86 1079.4
20260507002218 11 201 3.2 6.4 0.00 0.00 0.00 86 1079.4
20260507002203 11 202 3.2 6.4 0.00 0.00 0.00 86 1079.5
20260507001903 11 200 3.2 6.4 0.00 0.00 0.00 85 1079.5
20260507001803 11 199 3.2 6.4 0.00 0.00 0.00 85 1079.4
20260507001703 11 201 3.2 6.4 0.00 0.00 0.00 86 1079.5
20260507001603 11 203 3.2 9.7 0.00 0.00 0.00 86 1079.5
20260507001503 11 203 3.2 9.7 0.00 0.00 0.00 86 1079.6
20260507001403 11 203 3.2 9.7 0.00 0.00 0.00 86 1079.4
20260507001303 11 202 3.2 9.7 0.00 0.00 0.00 86 1079.4
20260507001218 11 199 3.2 9.7 0.00 0.00 0.00 85 1079.4
20260507001203 11 197 3.2 9.7 0.00 0.00 0.00 85 1079.2
20260507001103 11 196 3.2 9.7 0.00 0.00 0.00 85 1079.3
20260507000903 11 193 1.6 9.7 0.00 0.00 0.00 85 1079.2
20260507000803 11 196 1.6 9.7 0.00 0.00 0.00 85 1079.2
20260507000717 12 205 1.6 9.7 0.00 0.00 0.00 85 1079.2
20260507000703 12 207 1.6 9.7 0.00 0.00 0.00 85 1079.2
20260507000617 12 214 1.6 6.4 0.00 0.00 0.00 85 1079.2
20260507000603 12 215 1.6 6.4 0.00 0.00 0.00 85 1079.2
20260507000303 12 241 1.6 9.7 0.00 0.00 0.00 85 1079.2
20260507000219 12 242 1.6 9.7 0.00 0.00 0.00 85 1079.2
20260507000204 12 243 1.6 9.7 0.00 0.00 0.00 85 1079.2
20260506235917 12 231 3.2 9.7 0.00 0.00 0.00 85 1078.9
20260506235903 12 231 3.2 9.7 0.00 0.00 0.00 85 1079.2
20260506235803 12 228 3.2 9.7 0.00 0.00 0.00 85 1079.2
20260506235617 12 212 3.2 9.7 0.00 0.00 0.00 85 1079.0
20260506235603 12 210 3.2 9.7 0.00 0.00 0.00 85 1079.2
20260506235503 12 203 3.2 9.7 0.00 0.00 0.00 85 1078.8
20260506235306 12 191 3.2 6.4 0.00 0.00 0.00 85 1079.2
20260506235203 12 196 3.2 6.4 0.00 0.00 0.00 86 1079.3
20260506235103 12 198 1.6 6.4 0.00 0.00 0.00 86 1078.9
20260506235003 12 204 1.6 6.4 0.00 0.00 0.00 86 1079.0
20260506234903 12 208 3.2 6.4 0.00 0.00 0.00 86 1079.2
20260506234803 12 226 3.2 9.7 0.00 0.00 0.00 86 1078.9
20260506234703 12 285 3.2 9.7 0.00 0.00 0.00 85 1079.2
20260506234603 12 358 3.2 14.5 0.00 0.00 0.00 85 1078.7
20260506234518 12 358 3.2 14.5 0.00 0.00 0.00 85 1078.7
20260506234503 12 355 3.2 14.5 0.00 0.00 0.00 85 1078.8
20260506234403 12 357 3.2 14.5 0.00 0.00 0.00 85 1078.7
20260506234203 12 360 4.8 14.5 0.00 0.00 0.00 86 1078.5
20260506234103 12 1 4.8 14.5 0.00 0.00 0.00 86 1078.7
20260506234003 12 3 4.8 14.5 0.00 0.00 0.00 86 1078.5
20260506233903 12 1 3.2 14.5 0.00 0.00 0.00 86 1078.4
20260506233803 12 1 3.2 14.5 0.00 0.00 0.00 86 1078.2
20260506233717 12 356 3.2 14.5 0.00 0.00 0.00 86 1078.2
20260506233703 12 353 3.2 14.5 0.00 0.00 0.00 86 1078.4
20260506233603 12 340 3.2 11.3 0.00 0.00 0.00 86 1078.4
20260506233403 12 329 3.2 11.3 0.00 0.00 0.00 86 1078.4
20260506233303 12 323 3.2 11.3 0.00 0.00 0.00 86 1078.1
20260506233203 12 316 1.6 9.7 0.00 0.00 0.00 86 1078.2
20260506233103 12 311 1.6 9.7 0.00 0.00 0.00 86 1078.3
20260506233003 12 311 3.2 9.7 0.00 0.00 0.00 86 1078.3
20260506232903 12 322 3.2 11.3 0.00 0.00 0.00 86 1078.5
20260506232818 12 317 3.2 12.9 0.00 0.00 0.00 86 1078.5
20260506232803 12 319 4.8 12.9 0.00 0.00 0.00 86 1078.4
20260506232703 12 328 4.8 12.9 0.00 0.00 0.00 86 1078.4
20260506232503 12 340 4.8 12.9 0.00 0.00 0.00 86 1078.4
20260506232403 12 341 4.8 12.9 0.00 0.00 0.00 86 1078.4
20260506232306 12 340 6.4 16.1 0.00 0.00 0.00 86 1078.3
20260506232203 12 336 6.4 16.1 0.00 0.00 0.00 86 1078.1
20260506232103 12 341 6.4 16.1 0.00 0.00 0.00 86 1078.0
20260506232003 12 344 6.4 16.1 0.00 0.00 0.00 86 1078.0
20260506231903 12 344 8.0 16.1 0.00 0.00 0.00 86 1078.2
20260506231818 12 348 8.0 16.1 0.00 0.00 0.00 86 1078.2
20260506231803 12 349 8.0 16.1 0.00 0.00 0.00 86 1078.1
20260506231703 12 347 8.0 16.1 0.00 0.00 0.00 86 1078.1
20260506231503 12 348 8.0 16.1 0.00 0.00 0.00 86 1078.0
20260506231403 12 350 8.0 16.1 0.00 0.00 0.00 86 1078.1
20260506231303 12 352 6.4 16.1 0.00 0.00 0.00 86 1078.1
20260506231203 12 357 6.4 16.1 0.00 0.00 0.00 86 1078.4
20260506231103 12 354 6.4 16.1 0.00 0.00 0.00 86 1077.9
20260506231003 12 350 6.4 16.1 0.00 0.00 0.00 86 1078.0
20260506230903 12 347 6.4 16.1 0.00 0.00 0.00 86 1077.8
20260506230803 12 342 6.4 16.1 0.00 0.00 0.00 86 1078.2
20260506230703 12 339 6.4 16.1 0.00 0.00 0.00 86 1078.0
20260506230603 12 339 4.8 16.1 0.00 0.00 0.00 86 1078.1
20260506230503 12 335 4.8 16.1 0.00 0.00 0.00 86 1077.9
20260506230403 12 336 6.4 16.1 0.00 0.00 0.00 86 1078.0
20260506230303 12 332 6.4 16.1 0.00 0.00 0.00 86 1078.2
20260506230217 12 330 6.4 16.1 0.00 0.00 0.00 86 1078.2
20260506230203 12 328 6.4 16.1 0.00 0.00 0.00 86 1078.1
20260506230118 12 329 6.4 16.1 0.00 0.00 0.00 86 1078.1
20260506230103 12 331 6.4 16.1 0.00 0.00 0.00 86 1078.2
20260506225803 12 325 6.4 14.5 0.00 0.00 0.00 85 1078.1
20260506225703 12 322 6.4 14.5 0.00 0.00 0.00 85 1078.1
20260506225603 12 317 6.4 14.5 0.00 0.00 0.00 85 1078.0
20260506225517 12 312 6.4 14.5 0.00 0.00 0.00 85 1078.0
20260506225503 12 310 6.4 14.5 0.00 0.00 0.00 85 1078.0
20260506225403 12 298 8.0 14.5 0.00 0.00 0.00 85 1078.1
20260506225217 12 294 8.0 14.5 0.00 0.00 0.00 85 1078.0
20260506225203 12 293 8.0 14.5 0.00 0.00 0.00 85 1078.1
20260506225118 12 288 8.0 14.5 0.00 0.00 0.00 85 1078.1
20260506225103 12 288 8.0 14.5 0.00 0.00 0.00 85 1078.0
20260506224803 12 283 8.0 20.9 0.00 0.00 0.00 85 1078.3
20260506224703 12 286 9.7 20.9 0.00 0.00 0.00 84 1078.2
20260506224603 12 290 9.7 20.9 0.00 0.00 0.00 85 1078.2
20260506224503 12 293 9.7 22.5 0.00 0.00 0.00 84 1078.0
20260506224403 12 297 9.7 24.1 0.00 0.00 0.00 84 1078.0
20260506224303 12 299 9.7 24.1 0.00 0.00 0.00 84 1078.3
20260506224203 12 302 9.7 24.1 0.00 0.00 0.00 84 1078.1
20260506224118 12 306 9.7 24.1 0.00 0.00 0.00 84 1078.1
20260506224103 12 307 9.7 24.1 0.00 0.00 0.00 85 1077.9
20260506224003 12 313 9.7 24.1 0.00 0.00 0.00 84 1078.1
20260506223803 12 325 9.7 24.1 0.00 0.00 0.00 84 1077.8
20260506223703 12 328 9.7 24.1 0.00 0.00 0.00 84 1077.8
20260506223603 12 335 9.7 24.1 0.00 0.00 0.00 84 1077.7
20260506223403 12 338 9.7 24.1 0.00 0.00 0.00 84 1077.8
20260506223317 12 336 9.7 22.5 0.00 0.00 0.00 83 1077.8
20260506223303 12 334 9.7 22.5 0.00 0.00 0.00 83 1077.8
20260506223203 12 335 9.7 22.5 0.00 0.00 0.00 83 1077.8
20260506223003 12 331 9.7 22.5 0.00 0.00 0.00 83 1077.8
20260506222903 12 330 9.7 22.5 0.00 0.00 0.00 82 1077.8
20260506222803 12 322 9.7 20.9 0.00 0.00 0.00 82 1077.9
20260506222703 12 317 9.7 20.9 0.00 0.00 0.00 82 1077.9
20260506222603 12 309 9.7 20.9 0.00 0.00 0.00 82 1078.1
20260506222517 12 302 9.7 20.9 0.00 0.00 0.00 82 1078.1
20260506222503 12 302 9.7 20.9 0.00 0.00 0.00 82 1077.6
20260506222403 12 304 11.3 22.5 0.00 0.00 0.00 82 1077.9
20260506222203 12 310 11.3 22.5 0.00 0.00 0.00 82 1077.9
20260506222103 12 308 9.7 22.5 0.00 0.00 0.00 82 1077.7
20260506222003 12 307 9.7 22.5 0.00 0.00 0.00 82 1077.7
20260506221903 12 300 11.3 22.5 0.00 0.00 0.00 82 1077.8
20260506221803 12 300 11.3 22.5 0.00 0.00 0.00 82 1078.0
20260506221703 12 295 11.3 22.5 0.00 0.00 0.00 82 1077.5
20260506221603 12 289 11.3 22.5 0.00 0.00 0.00 82 1077.7
20260506221503 13 289 11.3 22.5 0.00 0.00 0.00 82 1077.9
20260506221418 13 287 11.3 22.5 0.00 0.00 0.00 82 1077.9
20260506221403 13 287 11.3 22.5 0.00 0.00 0.00 82 1077.7
20260506221303 13 284 11.3 25.7 0.00 0.00 0.00 82 1077.6
20260506221103 13 279 11.3 25.7 0.00 0.00 0.00 82 1077.9
20260506221003 13 276 11.3 25.7 0.00 0.00 0.00 82 1077.8
20260506220903 13 276 9.7 25.7 0.00 0.00 0.00 82 1077.8
20260506220803 13 270 9.7 25.7 0.00 0.00 0.00 82 1077.7
20260506220703 13 269 9.7 25.7 0.00 0.00 0.00 82 1078.1
20260506220603 13 272 9.7 25.7 0.00 0.00 0.00 82 1077.6
20260506220503 13 270 8.0 25.7 0.00 0.00 0.00 82 1078.0
20260506220403 13 265 8.0 25.7 0.00 0.00 0.00 82 1077.9
20260506220303 13 259 8.0 17.7 0.00 0.00 0.00 82 1077.8
20260506220203 13 258 8.0 17.7 0.00 0.00 0.00 82 1077.7
20260506220004 13 254 8.0 17.7 0.00 0.00 0.00 81 1078.1
20260506215903 13 253 8.0 17.7 0.00 0.00 0.00 81 1077.9
20260506215803 13 255 8.0 17.7 0.00 0.00 0.00 80 1077.8
20260506215703 13 252 6.4 16.1 0.00 0.00 0.00 81 1078.0
20260506215616 13 251 8.0 17.7 0.00 0.00 0.00 81 1078.0
20260506215603 13 250 8.0 17.7 0.00 0.00 0.00 81 1077.9
20260506215503 13 250 8.0 17.7 0.00 0.00 0.00 81 1077.9
20260506215316 14 247 8.0 17.7 0.00 0.00 0.00 80 1077.5
20260506215305 14 247 8.0 17.7 0.00 0.00 0.00 80 1077.8
20260506215203 14 240 6.4 17.7 0.00 0.00 0.00 80 1077.7
20260506215118 14 238 6.4 17.7 0.00 0.00 0.00 79 1077.7
20260506215003 14 226 6.4 17.7 0.00 0.00 0.00 79 1077.9
20260506214817 14 225 6.4 17.7 0.00 0.00 0.00 78 1077.7
20260506214803 14 223 6.4 17.7 0.00 0.00 0.00 78 1077.6
20260506214718 14 219 6.4 17.7 0.00 0.00 0.00 78 1077.6
20260506214703 14 218 6.4 17.7 0.00 0.00 0.00 78 1077.8
20260506214403 14 195 4.8 16.1 0.00 0.00 0.00 76 1077.6
20260506214303 14 192 4.8 16.1 0.00 0.00 0.00 76 1077.5
20260506214203 14 189 3.2 16.1 0.00 0.00 0.00 76 1077.7
20260506214103 14 183 3.2 16.1 0.00 0.00 0.00 75 1077.5
20260506214003 14 166 1.6 6.4 0.00 0.00 0.00 75 1077.6
20260506213903 14 129 1.6 6.4 0.00 0.00 0.00 75 1077.2
20260506213817 14 111 1.6 9.7 0.00 0.00 0.00 75 1077.2
20260506213803 14 106 1.6 9.7 0.00 0.00 0.00 74 1076.9
20260506213718 14 99 1.6 9.7 0.00 0.00 0.00 74 1076.9
20260506213703 14 96 1.6 9.7 0.00 0.00 0.00 73 1077.1
20260506213403 14 77 1.6 9.7 0.00 0.00 0.00 73 1076.9
20260506213303 14 77 1.6 9.7 0.00 0.00 0.00 73 1076.8
20260506213203 14 77 3.2 9.7 0.00 0.00 0.00 73 1077.0
20260506213103 14 76 3.2 9.7 0.00 0.00 0.00 73 1077.0
20260506213003 14 77 3.2 9.7 0.00 0.00 0.00 74 1076.9
20260506212903 14 76 3.2 9.7 0.00 0.00 0.00 74 1076.9
20260506212803 14 73 3.2 9.7 0.00 0.00 0.00 73 1076.7
20260506212703 14 71 3.2 9.7 0.00 0.00 0.00 73 1076.6
20260506212616 14 72 4.8 9.7 0.00 0.00 0.00 73 1076.6
20260506212603 14 72 4.8 9.7 0.00 0.00 0.00 73 1076.7
20260506212503 14 74 4.8 11.3 0.00 0.00 0.00 73 1076.8
20260506212316 15 74 4.8 11.3 0.00 0.00 0.00 73 1076.9
20260506212306 15 75 4.8 11.3 0.00 0.00 0.00 73 1076.7
20260506212217 15 75 4.8 11.3 0.00 0.00 0.00 73 1076.7
20260506212203 15 75 4.8 11.3 0.00 0.00 0.00 73 1076.8
20260506211903 15 78 6.4 11.3 0.00 0.00 0.00 74 1076.6
20260506211803 15 81 6.4 11.3 0.00 0.00 0.00 74 1076.8
20260506211703 15 82 6.4 11.3 0.00 0.00 0.00 74 1076.8
20260506211603 15 83 6.4 11.3 0.00 0.00 0.00 74 1076.7
20260506211503 15 83 6.4 11.3 0.00 0.00 0.00 74 1076.7
20260506211403 15 83 6.4 11.3 0.00 0.00 0.00 74 1076.8
20260506211318 15 83 6.4 11.3 0.00 0.00 0.00 74 1076.8
20260506211217 15 84 6.4 11.3 0.00 0.00 0.00 73 1076.7
20260506211203 15 83 6.4 11.3 0.00 0.00 0.00 73 1076.7
20260506210903 15 81 4.8 11.3 0.00 0.00 0.00 73 1076.7
20260506210803 15 78 4.8 11.3 0.00 0.00 0.00 73 1076.5
20260506210703 15 77 4.8 9.7 0.00 0.00 0.00 73 1076.6
20260506210603 15 76 4.8 11.3 0.00 0.00 0.00 73 1076.3
20260506210517 15 76 4.8 11.3 0.00 0.00 0.00 73 1076.3
20260506210503 15 74 4.8 11.3 0.00 0.00 0.00 73 1076.8
20260506210418 15 72 4.8 11.3 0.00 0.00 0.00 73 1076.8
20260506210403 15 72 4.8 11.3 0.00 0.00 0.00 73 1076.5
20260506210003 15 72 4.8 11.3 0.00 0.00 0.00 73 1076.5
20260506205916 15 74 4.8 11.3 0.00 0.00 0.00 73 1076.5
20260506205903 15 74 4.8 11.3 0.00 0.00 0.00 73 1076.7
20260506205803 15 72 4.8 11.3 0.00 0.00 0.00 73 1076.6
20260506205616 15 72 4.8 11.3 0.00 0.00 0.00 74 1076.6
20260506205603 14 71 4.8 11.3 0.00 0.00 0.00 74 1076.5
20260506205503 14 72 4.8 9.7 0.00 0.00 0.00 74 1076.5
20260506205305 14 73 4.8 9.7 0.00 0.00 0.00 74 1076.5
20260506205203 14 74 3.2 9.7 0.00 0.00 0.00 74 1076.6
20260506205103 14 70 3.2 9.7 0.00 0.00 0.00 74 1076.6
20260506205003 14 68 3.2 9.7 0.00 0.00 0.00 74 1076.5
20260506204903 14 67 3.2 9.7 0.00 0.00 0.00 74 1076.5
20260506204803 14 68 3.2 9.7 0.00 0.00 0.00 74 1076.5
20260506204703 14 69 3.2 9.7 0.00 0.00 0.00 73 1076.3
20260506204603 14 70 3.2 9.7 0.00 0.00 0.00 74 1076.3
20260506204503 14 68 3.2 6.4 0.00 0.00 0.00 73 1076.2
20260506204318 14 68 3.2 6.4 0.00 0.00 0.00 74 1076.6
20260506204304 14 68 3.2 6.4 0.00 0.00 0.00 74 1076.2
20260506204203 14 65 3.2 6.4 0.00 0.00 0.00 74 1076.3
20260506204117 14 65 3.2 6.4 0.00 0.00 0.00 73 1076.3
20260506204003 14 67 3.2 6.4 0.00 0.00 0.00 73 1076.6
20260506203803 14 64 3.2 6.4 0.00 0.00 0.00 74 1076.6
20260506203703 14 60 3.2 9.7 0.00 0.00 0.00 73 1076.6
20260506203603 14 60 3.2 9.7 0.00 0.00 0.00 73 1076.5
20260506203503 14 60 3.2 9.7 0.00 0.00 0.00 73 1076.5
20260506203403 14 62 3.2 9.7 0.00 0.00 0.00 74 1076.6
20260506203303 14 60 3.2 9.7 0.00 0.00 0.00 74 1076.6
20260506203203 14 59 3.2 9.7 0.00 0.00 0.00 74 1076.6
20260506203103 14 59 3.2 9.7 0.00 0.00 0.00 74 1076.6
20260506203003 14 55 3.2 9.7 0.00 0.00 0.00 74 1076.6
20260506202903 14 55 1.6 9.7 0.00 0.00 0.00 74 1076.7
20260506202803 14 54 1.6 9.7 0.00 0.00 0.00 74 1076.5
20260506202703 14 54 1.6 9.7 0.00 0.00 0.00 73 1076.5
20260506202603 14 49 1.6 9.7 0.00 0.00 0.00 73 1076.6
20260506202503 14 45 0.0 6.4 0.00 0.00 0.00 73 1076.6
20260506202403 14 45 0.0 6.4 0.00 0.00 0.00 73 1076.7
20260506202306 14 43 0.0 6.4 0.00 0.00 0.00 73 1076.5
20260506202216 14 44 0.0 6.4 0.00 0.00 0.00 73 1076.5
20260506202203 14 43 0.0 6.4 0.00 0.00 0.00 73 1076.5
20260506202103 14 39 0.0 6.4 0.00 0.00 0.00 72 1076.6
20260506201903 14 10 0.0 3.2 0.00 0.00 0.00 72 1076.5
20260506201803 14 1 0.0 3.2 0.00 0.00 0.00 73 1076.6
20260506201703 14 1 0.0 3.2 0.00 0.00 0.00 72 1076.4
20260506201603 15 4 0.0 3.2 0.00 0.00 0.00 72 1076.6
20260506201503 15 2 0.0 3.2 0.00 0.00 0.00 72 1076.6
20260506201403 15 358 1.6 4.8 0.00 0.00 0.00 72 1076.4
20260506201303 15 357 1.6 4.8 0.00 0.00 0.00 72 1076.5
20260506201203 15 357 1.6 4.8 0.00 0.00 0.00 74 1076.7
20260506201103 15 357 1.6 4.8 0.00 0.00 0.00 74 1076.6
20260506201017 15 357 1.6 4.8 0.00 0.00 0.00 71 1076.6
20260506201003 15 357 1.6 4.8 0.00 0.00 0.00 71 1076.5
20260506200903 15 354 1.6 4.8 0.00 0.00 0.00 72 1076.4
20260506200703 15 348 1.6 4.8 0.00 0.00 0.00 72 1076.7
20260506200603 15 340 1.6 4.8 0.00 0.00 0.00 73 1076.7
20260506200503 15 336 1.6 4.8 0.00 0.00 0.00 73 1076.5
20260506200303 15 345 1.6 6.4 0.00 0.00 0.00 72 1076.6
20260506200218 15 345 1.6 6.4 0.00 0.00 0.00 72 1076.6
20260506195903 15 345 3.2 6.4 0.00 0.00 0.00 73 1076.7
20260506195803 15 344 3.2 6.4 0.00 0.00 0.00 72 1076.8
20260506195703 15 343 3.2 6.4 0.00 0.00 0.00 72 1076.5
20260506195603 15 341 3.2 6.4 0.00 0.00 0.00 71 1076.5
20260506195503 15 342 3.2 6.4 0.00 0.00 0.00 72 1076.7
20260506195403 15 342 3.2 6.4 0.00 0.00 0.00 71 1076.4
20260506195317 15 342 3.2 6.4 0.00 0.00 0.00 71 1076.4
20260506195305 15 341 3.2 6.4 0.00 0.00 0.00 70 1076.7
20260506195218 15 340 3.2 4.8 0.00 0.00 0.00 70 1076.7
20260506195203 15 340 3.2 4.8 0.00 0.00 0.00 70 1076.8
20260506194903 16 339 3.2 6.4 0.00 0.00 0.00 69 1076.7
20260506194803 16 337 3.2 6.4 0.00 0.00 0.00 70 1076.7
20260506194703 16 340 3.2 6.4 0.00 0.00 0.00 69 1076.6
20260506194603 16 341 3.2 6.4 0.00 0.00 0.00 68 1076.6
20260506194503 16 341 3.2 6.4 0.00 0.00 0.00 69 1076.5
20260506194403 16 341 3.2 6.4 0.00 0.00 0.00 68 1076.7
20260506194303 16 340 3.2 6.4 0.00 0.00 0.00 67 1076.8
20260506194221 16 341 3.2 6.4 0.00 0.00 0.00 67 1076.8
20260506194004 16 345 1.6 6.4 0.00 0.00 0.00 67 1076.5
20260506193903 16 354 1.6 6.4 0.00 0.00 0.00 66 1076.5
20260506193803 16 358 1.6 4.8 0.00 0.00 0.00 66 1076.8
20260506193703 16 360 1.6 4.8 0.00 0.00 0.00 66 1076.5
20260506193617 16 2 1.6 4.8 0.00 0.00 0.00 66 1076.5
20260506193603 16 3 1.6 4.8 0.00 0.00 0.00 66 1076.6
20260506193503 16 8 3.2 4.8 0.00 0.00 0.00 66 1076.4
20260506193418 16 13 3.2 4.8 0.00 0.00 0.00 66 1076.4
20260506193303 16 18 3.2 6.4 0.00 0.00 0.00 66 1076.6
20260506193103 16 25 1.6 6.4 0.00 0.00 0.00 65 1076.4
20260506193003 16 25 1.6 6.4 0.00 0.00 0.00 66 1076.5
20260506192917 16 21 1.6 6.4 0.00 0.00 0.00 66 1076.5
20260506192903 16 22 1.6 6.4 0.00 0.00 0.00 65 1076.6
20260506192803 16 27 1.6 6.4 0.00 0.00 0.00 65 1076.4
20260506192603 16 47 3.2 9.7 0.00 0.00 0.00 65 1076.5
20260506192503 16 53 1.6 9.7 0.00 0.00 0.00 64 1076.6
20260506192403 16 56 3.2 11.3 0.00 0.00 0.00 64 1076.3
20260506192305 16 61 3.2 11.3 0.00 0.00 0.00 64 1076.4
20260506192203 16 63 3.2 11.3 0.00 0.00 0.00 64 1076.4
20260506192103 16 61 4.8 11.3 0.00 0.00 0.00 64 1076.3
20260506192003 16 63 4.8 11.3 0.00 0.00 0.00 64 1076.2
20260506191903 16 64 4.8 11.3 0.00 0.00 0.00 64 1076.4
20260506191818 16 64 4.8 11.3 0.00 0.00 0.00 64 1076.4
20260506191803 16 64 4.8 11.3 0.00 0.00 0.00 64 1076.3
20260506191703 16 63 4.8 11.3 0.00 0.00 0.00 64 1076.4
20260506191503 16 64 6.4 12.9 0.00 0.00 0.00 64 1076.4
20260506191403 16 65 6.4 12.9 0.00 0.00 0.00 64 1076.2
20260506191303 16 64 6.4 12.9 0.00 0.00 0.00 64 1076.3
20260506191203 17 64 4.8 12.9 0.00 0.00 0.00 64 1076.4
20260506191103 17 67 4.8 12.9 0.00 0.00 0.00 63 1076.4
20260506191003 17 65 4.8 12.9 0.00 0.00 0.00 63 1076.2
20260506190903 17 67 4.8 12.9 0.00 0.00 0.00 63 1076.3
20260506190803 17 69 4.8 12.9 0.00 0.00 0.00 63 1076.2
20260506190703 17 68 6.4 12.9 0.00 0.00 0.00 63 1076.3
20260506190603 17 67 6.4 12.9 0.00 0.00 0.00 63 1076.3
20260506190503 17 66 6.4 12.9 0.00 0.00 0.00 63 1076.2
20260506190403 17 65 6.4 20.9 0.00 0.00 0.00 63 1076.4
20260506190303 17 65 6.4 20.9 0.00 0.00 0.00 63 1076.1
20260506190203 17 64 6.4 20.9 0.00 0.00 0.00 63 1076.3
20260506190004 17 63 6.4 20.9 0.00 0.00 0.00 63 1076.3
20260506185903 17 60 6.4 20.9 0.00 0.00 0.00 63 1076.3
20260506185803 17 59 6.4 20.9 0.00 0.00 0.00 63 1076.2
20260506185703 17 59 6.4 20.9 0.00 0.00 0.00 63 1076.2
20260506185603 17 57 6.4 20.9 0.00 0.00 0.00 63 1076.2
20260506185503 17 59 6.4 20.9 0.00 0.00 0.00 63 1076.3
20260506185403 17 62 4.8 12.9 0.00 0.00 0.00 62 1076.2
20260506185306 17 64 6.4 14.5 0.00 0.00 0.00 62 1076.3
20260506185203 17 66 6.4 14.5 0.00 0.00 0.00 63 1076.2
20260506185103 17 69 6.4 14.5 0.00 0.00 0.00 63 1076.2
20260506185003 17 68 4.8 14.5 0.00 0.00 0.00 62 1076.1
20260506184903 17 71 4.8 14.5 0.00 0.00 0.00 62 1076.1
20260506184803 17 70 4.8 14.5 0.00 0.00 0.00 62 1076.1
20260506184703 17 71 4.8 14.5 0.00 0.00 0.00 62 1076.1
20260506184603 17 74 4.8 14.5 0.00 0.00 0.00 62 1076.1
20260506184503 17 74 4.8 14.5 0.00 0.00 0.00 62 1076.2
20260506184403 17 71 3.2 14.5 0.00 0.00 0.00 62 1076.2
20260506184303 17 69 3.2 11.3 0.00 0.00 0.00 61 1076.4
20260506184203 17 68 3.2 11.3 0.00 0.00 0.00 62 1076.0
20260506184103 17 66 3.2 11.3 0.00 0.00 0.00 62 1076.1
20260506184018 17 66 3.2 11.3 0.00 0.00 0.00 61 1076.1
20260506184003 17 66 3.2 11.3 0.00 0.00 0.00 61 1076.2
20260506183903 17 64 3.2 9.7 0.00 0.00 0.00 61 1076.1
20260506183703 17 61 3.2 9.7 0.00 0.00 0.00 61 1075.8
20260506183603 17 59 3.2 9.7 0.00 0.00 0.00 60 1075.9
20260506183503 17 59 3.2 9.7 0.00 0.00 0.00 60 1076.2
20260506183403 17 58 3.2 9.7 0.00 0.00 0.00 60 1076.1
20260506183303 17 59 3.2 9.7 0.00 0.00 0.00 60 1076.1
20260506183203 17 62 3.2 9.7 0.00 0.00 0.00 59 1076.0
20260506183103 17 63 3.2 9.7 0.00 0.00 0.00 60 1076.1
20260506183003 17 68 4.8 11.3 0.00 0.00 0.00 59 1076.2
20260506182903 17 69 4.8 11.3 0.00 0.00 0.00 59 1076.3
20260506182803 17 70 4.8 11.3 0.00 0.00 0.00 60 1076.2
20260506182703 17 74 4.8 12.9 0.00 0.00 0.00 60 1076.1
20260506182603 17 75 6.4 14.5 0.00 0.00 0.00 60 1076.1
20260506182503 17 78 6.4 17.7 0.00 0.00 0.00 59 1076.1
20260506182403 17 77 6.4 17.7 0.00 0.00 0.00 59 1076.0
20260506182318 17 78 6.4 17.7 0.00 0.00 0.00 59 1076.0
20260506182306 17 77 6.4 17.7 0.00 0.00 0.00 59 1076.1
20260506182203 17 74 6.4 17.7 0.00 0.00 0.00 59 1076.0
20260506182018 17 74 6.4 17.7 0.00 0.00 0.00 59 1076.2
20260506182003 17 73 6.4 17.7 0.00 0.00 0.00 59 1076.0
20260506181903 18 74 6.4 17.7 0.00 0.00 0.00 58 1076.2
20260506181703 18 74 6.4 17.7 0.00 0.00 0.00 59 1076.0
20260506181603 18 75 6.4 17.7 0.00 0.00 0.00 59 1076.0
20260506181503 18 75 6.4 16.1 0.00 0.00 0.00 58 1076.1
20260506181403 18 77 6.4 16.1 0.00 0.00 0.00 58 1075.9
20260506181303 18 78 6.4 16.1 0.00 0.00 0.00 58 1075.9
20260506181203 18 82 8.0 16.1 0.00 0.00 0.00 58 1076.0
20260506181103 18 83 8.0 16.1 0.00 0.00 0.00 58 1076.0
20260506181003 18 80 8.0 16.1 0.00 0.00 0.00 58 1076.1
20260506180903 18 82 8.0 16.1 0.00 0.00 0.00 58 1076.1
20260506180803 18 83 8.0 16.1 0.00 0.00 0.00 58 1075.9
20260506180718 18 83 8.0 16.1 0.00 0.00 0.00 58 1075.9
20260506180703 18 82 8.0 16.1 0.00 0.00 0.00 57 1076.1
20260506180603 18 83 8.0 16.1 0.00 0.00 0.00 57 1076.0
20260506180403 18 82 8.0 17.7 0.00 0.00 0.00 57 1076.1
20260506180303 18 80 8.0 17.7 0.00 0.00 0.00 57 1076.1
20260506180203 18 80 9.7 17.7 0.00 0.00 0.00 57 1076.1
20260506180004 18 85 9.7 22.5 0.00 0.00 0.00 57 1076.1
20260506175803 18 84 11.3 22.5 0.00 0.00 0.00 56 1076.0
20260506175703 18 84 11.3 22.5 0.00 0.00 0.00 56 1076.2
20260506175603 18 85 9.7 22.5 0.00 0.00 0.00 56 1076.0
20260506175503 18 83 9.7 22.5 0.00 0.00 0.00 56 1076.0
20260506175403 18 87 9.7 22.5 0.00 0.00 0.00 56 1076.1
20260506175306 18 92 9.7 22.5 0.00 0.00 0.00 56 1075.9
20260506175203 18 94 9.7 22.5 0.00 0.00 0.00 56 1076.2
20260506175103 18 90 11.3 29.0 0.00 0.00 0.00 56 1076.0
20260506175003 18 86 11.3 29.0 0.00 0.00 0.00 56 1075.9
20260506174903 18 87 11.3 29.0 0.00 0.00 0.00 55 1075.9
20260506174803 18 86 11.3 29.0 0.00 0.00 0.00 55 1075.9
20260506174718 18 90 11.3 29.0 0.00 0.00 0.00 55 1075.9
20260506174703 18 91 11.3 29.0 0.00 0.00 0.00 55 1076.0
20260506174603 18 91 12.9 29.0 0.00 0.00 0.00 55 1076.0
20260506174403 18 93 12.9 29.0 0.00 0.00 0.00 55 1075.9
20260506174303 18 93 12.9 29.0 0.00 0.00 0.00 55 1075.9
20260506174217 19 94 12.9 29.0 0.00 0.00 0.00 55 1075.9
20260506174203 19 94 12.9 29.0 0.00 0.00 0.00 55 1076.1
20260506174103 19 98 11.3 24.1 0.00 0.00 0.00 55 1076.0
20260506174018 19 103 11.3 24.1 0.00 0.00 0.00 55 1076.0
20260506173903 19 105 11.3 27.4 0.00 0.00 0.00 55 1075.9
20260506173817 19 106 12.9 27.4 0.00 0.00 0.00 55 1075.9
20260506173703 19 105 11.3 27.4 0.00 0.00 0.00 55 1076.1
20260506173503 19 104 11.3 27.4 0.00 0.00 0.00 55 1076.0
20260506173403 19 104 11.3 27.4 0.00 0.00 0.00 54 1075.9
20260506173303 19 103 11.3 27.4 0.00 0.00 0.00 54 1075.9
20260506173203 19 102 11.3 27.4 0.00 0.00 0.00 54 1076.1
20260506173103 19 103 11.3 27.4 0.00 0.00 0.00 54 1076.3
20260506173003 19 102 11.3 24.1 0.00 0.00 0.00 54 1076.1
20260506172903 19 100 11.3 22.5 0.00 0.00 0.00 54 1075.9
20260506172803 19 97 11.3 22.5 0.00 0.00 0.00 53 1076.1
20260506172703 19 98 11.3 22.5 0.00 0.00 0.00 53 1076.3
20260506172618 19 98 11.3 22.5 0.00 0.00 0.00 53 1076.3
20260506172603 19 97 11.3 22.5 0.00 0.00 0.00 53 1076.2
20260506172503 19 94 11.3 22.5 0.00 0.00 0.00 53 1076.0
20260506172306 20 93 12.9 24.1 0.00 0.00 0.00 53 1076.0
20260506172203 20 91 12.9 27.4 0.00 0.00 0.00 53 1076.2
20260506172103 20 91 12.9 27.4 0.00 0.00 0.00 53 1075.7
20260506172003 20 91 12.9 27.4 0.00 0.00 0.00 52 1075.9
20260506171903 20 92 12.9 27.4 0.00 0.00 0.00 52 1076.1
20260506171803 20 94 12.9 27.4 0.00 0.00 0.00 52 1076.0
20260506171717 20 89 12.9 29.0 0.00 0.00 0.00 52 1076.0
20260506171703 20 88 12.9 29.0 0.00 0.00 0.00 52 1076.2
20260506171618 20 89 14.5 29.0 0.00 0.00 0.00 52 1076.2
20260506171603 20 88 14.5 29.0 0.00 0.00 0.00 52 1076.1
20260506171517 20 88 14.5 29.0 0.00 0.00 0.00 51 1076.1
20260506171217 20 88 14.5 29.0 0.00 0.00 0.00 51 1076.0
20260506171203 20 88 14.5 29.0 0.00 0.00 0.00 51 1076.2
20260506171103 20 87 12.9 29.0 0.00 0.00 0.00 51 1076.2
20260506171018 20 86 12.9 29.0 0.00 0.00 0.00 51 1076.2
20260506170903 20 83 14.5 29.0 0.00 0.00 0.00 51 1076.0
20260506170703 20 90 12.9 30.6 0.00 0.00 0.00 51 1076.1
20260506170603 20 92 11.3 30.6 0.00 0.00 0.00 51 1076.1
20260506170517 20 92 11.3 30.6 0.00 0.00 0.00 51 1076.1
20260506170503 20 89 11.3 30.6 0.00 0.00 0.00 50 1076.2
20260506170403 20 92 11.3 30.6 0.00 0.00 0.00 50 1075.9
20260506170203 20 91 11.3 30.6 0.00 0.00 0.00 50 1076.0
20260506170117 20 94 11.3 30.6 0.00 0.00 0.00 50 1076.0
20260506170103 20 94 11.3 30.6 0.00 0.00 0.00 50 1075.9
20260506170004 20 93 11.3 30.6 0.00 0.00 0.00 50 1076.0
20260506165803 20 98 11.3 27.4 0.00 0.00 0.00 50 1076.1
20260506165703 20 97 11.3 27.4 0.00 0.00 0.00 50 1075.8
20260506165603 20 98 11.3 27.4 0.00 0.00 0.00 50 1076.0
20260506165503 20 100 11.3 27.4 0.00 0.00 0.00 50 1075.9
20260506165417 20 104 12.9 29.0 0.00 0.00 0.00 50 1075.9
20260506165403 20 105 12.9 29.0 0.00 0.00 0.00 50 1075.8
20260506165305 20 106 12.9 29.0 0.00 0.00 0.00 50 1076.2
20260506165103 20 104 11.3 33.8 0.00 0.00 0.00 50 1076.2
20260506165003 20 105 12.9 33.8 0.00 0.00 0.00 50 1075.9
20260506164903 20 104 12.9 33.8 0.00 0.00 0.00 50 1076.1
20260506164804 20 103 12.9 33.8 0.00 0.00 0.00 50 1076.0
20260506164703 20 102 14.5 33.8 0.00 0.00 0.00 50 1075.9
20260506164618 20 102 14.5 33.8 0.00 0.00 0.00 50 1075.9
20260506164603 20 102 14.5 33.8 0.00 0.00 0.00 50 1076.2
20260506164503 20 99 14.5 33.8 0.00 0.00 0.00 49 1076.3
20260506164303 20 95 14.5 33.8 0.00 0.00 0.00 49 1076.2
20260506164203 20 95 16.1 33.8 0.00 0.00 0.00 49 1075.9
20260506164103 20 97 16.1 33.8 0.00 0.00 0.00 49 1075.7
20260506164003 20 96 14.5 33.8 0.00 0.00 0.00 49 1076.2
20260506163903 20 97 14.5 33.8 0.00 0.00 0.00 49 1076.1
20260506163803 20 94 14.5 33.8 0.00 0.00 0.00 49 1076.0
20260506163703 20 93 12.9 33.8 0.00 0.00 0.00 49 1076.1
20260506163603 20 90 12.9 33.8 0.00 0.00 0.00 49 1076.2
20260506163503 20 93 11.3 33.8 0.00 0.00 0.00 49 1076.2
20260506163403 20 97 12.9 33.8 0.00 0.00 0.00 49 1076.2
20260506163203 20 95 11.3 33.8 0.00 0.00 0.00 50 1076.4
20260506163103 20 95 11.3 27.4 0.00 0.00 0.00 50 1076.2
20260506163003 20 93 12.9 27.4 0.00 0.00 0.00 50 1076.4
20260506162903 20 93 11.3 27.4 0.00 0.00 0.00 50 1076.2
20260506162803 20 93 11.3 27.4 0.00 0.00 0.00 50 1076.2
20260506162703 20 94 12.9 27.4 0.00 0.00 0.00 50 1076.5
20260506162603 20 92 12.9 27.4 0.00 0.00 0.00 50 1076.1
20260506162503 20 91 12.9 27.4 0.00 0.00 0.00 50 1076.4
20260506162403 20 86 12.9 27.4 0.00 0.00 0.00 50 1076.5
20260506162306 20 85 12.9 27.4 0.00 0.00 0.00 50 1076.1
20260506162203 20 83 11.3 27.4 0.00 0.00 0.00 50 1076.5
20260506162103 20 84 11.3 27.4 0.00 0.00 0.00 50 1076.3
20260506162003 20 87 11.3 27.4 0.00 0.00 0.00 50 1076.1
20260506161918 20 87 11.3 27.4 0.00 0.00 0.00 50 1076.1
20260506161903 20 86 11.3 27.4 0.00 0.00 0.00 50 1076.5
20260506161803 20 86 12.9 27.4 0.00 0.00 0.00 50 1076.3
20260506161603 20 95 11.3 24.1 0.00 0.00 0.00 50 1076.6
20260506161516 20 98 11.3 24.1 0.00 0.00 0.00 49 1076.6
20260506161503 20 99 11.3 24.1 0.00 0.00 0.00 49 1076.4
20260506161417 21 104 11.3 24.1 0.00 0.00 0.00 50 1076.4
20260506161403 21 106 11.3 24.1 0.00 0.00 0.00 50 1076.3
20260506161218 21 112 11.3 24.1 0.00 0.00 0.00 50 1076.5
20260506161103 21 113 11.3 24.1 0.00 0.00 0.00 49 1076.5
20260506160903 21 107 12.9 33.8 0.00 0.00 0.00 50 1076.6
20260506160803 21 106 12.9 33.8 0.00 0.00 0.00 50 1076.5
20260506160703 21 104 12.9 33.8 0.00 0.00 0.00 49 1076.5
20260506160603 21 101 12.9 33.8 0.00 0.00 0.00 50 1076.6
20260506160503 21 96 12.9 33.8 0.00 0.00 0.00 49 1076.5
20260506160403 21 93 12.9 33.8 0.00 0.00 0.00 49 1076.3
20260506160303 21 89 14.5 35.4 0.00 0.00 0.00 49 1076.6
20260506160203 21 90 14.5 35.4 0.00 0.00 0.00 49 1076.6
20260506160103 21 92 14.5 35.4 0.00 0.00 0.00 49 1076.7
20260506160003 21 94 16.1 35.4 0.00 0.00 0.00 49 1076.6
20260506155903 21 98 16.1 35.4 0.00 0.00 0.00 49 1076.6
20260506155803 21 101 14.5 35.4 0.00 0.00 0.00 49 1076.6
20260506155703 21 98 16.1 35.4 0.00 0.00 0.00 49 1076.6
20260506155618 21 99 16.1 35.4 0.00 0.00 0.00 49 1076.6
20260506155603 21 100 16.1 35.4 0.00 0.00 0.00 49 1076.8
20260506155518 21 100 16.1 35.4 0.00 0.00 0.00 49 1076.8
20260506155503 21 101 16.1 35.4 0.00 0.00 0.00 49 1076.6
20260506155203 21 97 16.1 33.8 0.00 0.00 0.00 49 1076.5
20260506155103 21 94 14.5 30.6 0.00 0.00 0.00 49 1076.7
20260506155003 21 91 14.5 30.6 0.00 0.00 0.00 49 1076.6
20260506154903 21 94 16.1 37.0 0.00 0.00 0.00 49 1076.6
20260506154803 21 91 16.1 38.6 0.00 0.00 0.00 49 1076.5
20260506154703 21 95 14.5 38.6 0.00 0.00 0.00 49 1076.7
20260506154603 21 94 14.5 38.6 0.00 0.00 0.00 49 1076.5
20260506154503 21 92 14.5 38.6 0.00 0.00 0.00 49 1076.6
20260506154403 21 101 14.5 38.6 0.00 0.00 0.00 49 1076.6
20260506154303 21 107 16.1 38.6 0.00 0.00 0.00 49 1076.6
20260506154203 21 107 16.1 38.6 0.00 0.00 0.00 48 1076.6
20260506154103 21 108 16.1 38.6 0.00 0.00 0.00 49 1076.6
20260506154003 21 110 16.1 38.6 0.00 0.00 0.00 49 1076.8
20260506153918 21 108 14.5 38.6 0.00 0.00 0.00 49 1076.8
20260506153903 21 108 14.5 38.6 0.00 0.00 0.00 49 1076.5
20260506153818 21 113 12.9 35.4 0.00 0.00 0.00 49 1076.5
20260506153803 21 115 12.9 35.4 0.00 0.00 0.00 49 1076.7
20260506153503 21 121 12.9 35.4 0.00 0.00 0.00 49 1076.7
20260506153403 21 115 12.9 35.4 0.00 0.00 0.00 49 1077.0
20260506153317 21 108 12.9 33.8 0.00 0.00 0.00 49 1077.0
20260506153303 21 108 11.3 33.8 0.00 0.00 0.00 49 1076.5
20260506153218 21 111 11.3 33.8 0.00 0.00 0.00 50 1076.5
20260506153203 21 111 11.3 33.8 0.00 0.00 0.00 50 1076.6
20260506152903 21 111 12.9 33.8 0.00 0.00 0.00 49 1076.9
20260506152803 21 109 12.9 33.8 0.00 0.00 0.00 50 1077.0
20260506152703 21 108 14.5 33.8 0.00 0.00 0.00 50 1077.1
20260506152603 21 105 14.5 33.8 0.00 0.00 0.00 50 1076.9
20260506152503 21 103 14.5 33.8 0.00 0.00 0.00 51 1077.0
20260506152417 21 103 14.5 33.8 0.00 0.00 0.00 51 1077.0
20260506152403 21 104 14.5 27.4 0.00 0.00 0.00 51 1077.0
20260506152317 21 104 14.5 27.4 0.00 0.00 0.00 50 1077.0
20260506152305 21 105 14.5 27.4 0.00 0.00 0.00 50 1077.0
20260506152017 21 107 14.5 37.0 0.00 0.00 0.00 51 1077.1
20260506152003 21 107 14.5 37.0 0.00 0.00 0.00 51 1077.4
20260506151903 21 106 14.5 37.0 0.00 0.00 0.00 50 1076.9
20260506151703 21 106 14.5 37.0 0.00 0.00 0.00 50 1077.0
20260506151603 21 108 14.5 37.0 0.00 0.00 0.00 50 1077.2
20260506151518 21 109 14.5 37.0 0.00 0.00 0.00 51 1077.2
20260506151503 21 110 12.9 37.0 0.00 0.00 0.00 51 1077.0
20260506151403 20 109 12.9 37.0 0.00 0.00 0.00 51 1077.0
20260506151317 20 109 12.9 37.0 0.00 0.00 0.00 51 1077.0
20260506151203 20 101 14.5 41.8 0.00 0.00 0.00 51 1077.0
20260506151003 20 101 16.1 41.8 0.00 0.00 0.00 51 1076.9
20260506150903 20 101 16.1 41.8 0.00 0.00 0.00 50 1077.0
20260506150818 20 102 16.1 41.8 0.00 0.00 0.00 50 1077.0
20260506150803 20 100 16.1 41.8 0.00 0.00 0.00 50 1077.1
20260506150703 20 100 16.1 41.8 0.00 0.00 0.00 50 1077.1
20260506150503 21 101 17.7 41.8 0.00 0.00 0.00 50 1077.2
20260506150416 21 100 19.3 41.8 0.00 0.00 0.00 50 1077.2
20260506150403 21 100 19.3 41.8 0.00 0.00 0.00 50 1077.2
20260506150317 21 99 19.3 41.8 0.00 0.00 0.00 50 1077.2
20260506150304 21 101 19.3 41.8 0.00 0.00 0.00 50 1077.4
20260506150017 21 110 17.7 40.2 0.00 0.00 0.00 50 1077.5
20260506150003 21 111 17.7 40.2 0.00 0.00 0.00 50 1077.2
20260506145903 21 112 17.7 40.2 0.00 0.00 0.00 50 1077.1
20260506145703 21 115 17.7 40.2 0.00 0.00 0.00 49 1077.2
20260506145603 21 117 17.7 40.2 0.00 0.00 0.00 50 1077.1
20260506145503 21 118 17.7 40.2 0.00 0.00 0.00 49 1077.4
20260506145403 21 120 17.7 40.2 0.00 0.00 0.00 49 1077.1
20260506145305 21 120 17.7 37.0 0.00 0.00 0.00 49 1077.5
20260506145203 21 118 16.1 35.4 0.00 0.00 0.00 49 1077.2
20260506145118 21 114 16.1 35.4 0.00 0.00 0.00 50 1077.2
20260506145103 21 111 16.1 35.4 0.00 0.00 0.00 50 1077.4
20260506145003 21 111 14.5 35.4 0.00 0.00 0.00 50 1077.1
20260506144803 21 108 14.5 35.4 0.00 0.00 0.00 50 1077.4
20260506144703 21 106 14.5 35.4 0.00 0.00 0.00 50 1077.2
20260506144603 21 100 14.5 30.6 0.00 0.00 0.00 51 1077.4
20260506144503 21 97 14.5 30.6 0.00 0.00 0.00 50 1077.5
20260506144416 21 96 14.5 30.6 0.00 0.00 0.00 50 1077.5
20260506144403 21 95 12.9 30.6 0.00 0.00 0.00 50 1077.6
20260506144303 21 95 12.9 30.6 0.00 0.00 0.00 50 1077.6
20260506144218 21 93 12.9 30.6 0.00 0.00 0.00 50 1077.6
20260506144103 21 94 14.5 30.6 0.00 0.00 0.00 50 1077.4
20260506143903 21 90 16.1 30.6 0.00 0.00 0.00 50 1077.5
20260506143803 21 86 14.5 30.6 0.00 0.00 0.00 49 1077.5
20260506143716 21 88 14.5 30.6 0.00 0.00 0.00 49 1077.5
20260506143703 21 87 14.5 30.6 0.00 0.00 0.00 50 1077.6
20260506143603 21 87 14.5 30.6 0.00 0.00 0.00 50 1077.5
20260506143403 21 82 12.9 27.4 0.00 0.00 0.00 50 1077.5
20260506143303 21 81 12.9 27.4 0.00 0.00 0.00 50 1077.5
20260506143203 21 78 12.9 27.4 0.00 0.00 0.00 50 1077.6
20260506143103 21 81 12.9 27.4 0.00 0.00 0.00 50 1077.5
20260506143003 21 79 12.9 27.4 0.00 0.00 0.00 50 1077.5
20260506142903 21 80 11.3 27.4 0.00 0.00 0.00 49 1077.8
20260506142818 21 80 11.3 27.4 0.00 0.00 0.00 49 1077.8
20260506142803 21 81 11.3 27.4 0.00 0.00 0.00 49 1077.6
20260506142703 21 80 11.3 27.4 0.00 0.00 0.00 49 1077.8
20260506142503 22 81 11.3 27.4 0.00 0.00 0.00 49 1077.7
20260506142403 22 83 11.3 27.4 0.00 0.00 0.00 49 1077.9
20260506142306 22 84 11.3 27.4 0.00 0.00 0.00 49 1077.7
20260506142203 22 89 11.3 27.4 0.00 0.00 0.00 49 1077.8
20260506142103 22 86 9.7 24.1 0.00 0.00 0.00 49 1077.8
20260506142003 22 89 9.7 24.1 0.00 0.00 0.00 49 1077.5
20260506141903 22 87 9.7 24.1 0.00 0.00 0.00 49 1077.7
20260506141803 21 87 11.3 24.1 0.00 0.00 0.00 49 1078.0
20260506141703 21 84 11.3 24.1 0.00 0.00 0.00 49 1077.7
20260506141603 21 87 11.3 24.1 0.00 0.00 0.00 49 1077.6
20260506141503 21 94 11.3 38.6 0.00 0.00 0.00 50 1077.7
20260506141418 21 94 11.3 38.6 0.00 0.00 0.00 50 1077.7
20260506141403 21 94 11.3 38.6 0.00 0.00 0.00 50 1077.8
20260506141303 21 98 11.3 38.6 0.00 0.00 0.00 50 1077.7
20260506141103 21 94 14.5 38.6 0.00 0.00 0.00 49 1077.9
20260506141003 21 94 14.5 38.6 0.00 0.00 0.00 49 1077.9
20260506140903 21 94 14.5 38.6 0.00 0.00 0.00 49 1078.0
20260506140803 21 94 16.1 38.6 0.00 0.00 0.00 48 1077.9
20260506140703 21 94 16.1 38.6 0.00 0.00 0.00 49 1077.7
20260506140603 21 93 16.1 38.6 0.00 0.00 0.00 49 1078.0
20260506140503 22 90 14.5 38.6 0.00 0.00 0.00 48 1078.0
20260506140418 22 90 16.1 38.6 0.00 0.00 0.00 48 1078.0
20260506140403 22 90 16.1 38.6 0.00 0.00 0.00 48 1078.2
20260506140303 22 86 16.1 38.6 0.00 0.00 0.00 48 1078.0
20260506140003 22 91 16.1 30.6 0.00 0.00 0.00 48 1078.0
20260506135903 22 92 16.1 30.6 0.00 0.00 0.00 48 1077.8
20260506135803 22 94 16.1 30.6 0.00 0.00 0.00 48 1077.9
20260506135703 22 98 16.1 30.6 0.00 0.00 0.00 48 1078.0
20260506135617 22 98 16.1 30.6 0.00 0.00 0.00 48 1078.0
20260506135603 22 98 16.1 30.6 0.00 0.00 0.00 48 1078.1
20260506135503 22 97 16.1 30.6 0.00 0.00 0.00 48 1077.9
20260506135306 22 103 12.9 30.6 0.00 0.00 0.00 48 1077.9
20260506135217 22 104 12.9 29.0 0.00 0.00 0.00 48 1077.9
20260506135203 22 104 12.9 29.0 0.00 0.00 0.00 48 1078.0
20260506135103 22 110 12.9 29.0 0.00 0.00 0.00 48 1078.3
20260506134917 22 111 12.9 29.0 0.00 0.00 0.00 47 1077.9
20260506134903 22 110 12.9 29.0 0.00 0.00 0.00 47 1078.0
20260506134818 22 111 12.9 29.0 0.00 0.00 0.00 46 1078.0
20260506134803 22 112 12.9 29.0 0.00 0.00 0.00 46 1077.9
20260506134617 22 114 12.9 29.0 0.00 0.00 0.00 47 1078.1
20260506134503 22 116 12.9 29.0 0.00 0.00 0.00 47 1078.1
20260506134303 22 116 14.5 29.0 0.00 0.00 0.00 47 1078.1
20260506134203 22 114 16.1 29.0 0.00 0.00 0.00 47 1077.8
20260506134103 22 113 16.1 29.0 0.00 0.00 0.00 47 1078.1
20260506134017 22 112 16.1 30.6 0.00 0.00 0.00 47 1078.1
20260506134003 22 112 16.1 30.6 0.00 0.00 0.00 47 1078.1
20260506133903 22 113 16.1 30.6 0.00 0.00 0.00 46 1078.2
20260506133818 22 112 14.5 30.6 0.00 0.00 0.00 47 1078.2
20260506133704 22 112 14.5 30.6 0.00 0.00 0.00 46 1078.0
20260506133503 22 109 12.9 30.6 0.00 0.00 0.00 46 1078.2
20260506133403 22 104 12.9 30.6 0.00 0.00 0.00 47 1077.9
20260506133303 22 107 12.9 37.0 0.00 0.00 0.00 46 1077.8
20260506133203 22 105 11.3 37.0 0.00 0.00 0.00 46 1078.0
20260506133103 22 105 11.3 37.0 0.00 0.00 0.00 46 1078.1
20260506133003 22 103 11.3 37.0 0.00 0.00 0.00 46 1078.0
20260506132903 22 104 11.3 37.0 0.00 0.00 0.00 46 1078.2
20260506132818 22 105 11.3 37.0 0.00 0.00 0.00 45 1078.2
20260506132803 22 104 11.3 37.0 0.00 0.00 0.00 45 1078.1
20260506132703 22 102 11.3 37.0 0.00 0.00 0.00 46 1078.1
20260506132503 22 104 12.9 37.0 0.00 0.00 0.00 46 1078.4
20260506132403 22 105 12.9 37.0 0.00 0.00 0.00 45 1078.2
20260506132217 22 101 12.9 29.0 0.00 0.00 0.00 45 1078.1
20260506132203 22 101 12.9 29.0 0.00 0.00 0.00 45 1078.3
20260506132103 22 101 11.3 29.0 0.00 0.00 0.00 46 1078.4
20260506131917 22 100 12.9 29.0 0.00 0.00 0.00 46 1078.1
20260506131903 22 100 12.9 29.0 0.00 0.00 0.00 46 1078.4
20260506131803 22 100 12.9 29.0 0.00 0.00 0.00 45 1078.4
20260506131603 22 100 12.9 29.0 0.00 0.00 0.00 45 1078.3
20260506131503 22 104 11.3 29.0 0.00 0.00 0.00 45 1078.6
20260506131403 22 107 11.3 29.0 0.00 0.00 0.00 46 1078.4
20260506131303 22 113 11.3 20.9 0.00 0.00 0.00 46 1078.1
20260506131203 22 118 11.3 20.9 0.00 0.00 0.00 46 1078.2
20260506131103 22 122 11.3 22.5 0.00 0.00 0.00 46 1078.2
20260506131003 22 124 11.3 22.5 0.00 0.00 0.00 46 1078.5
20260506130903 22 123 11.3 22.5 0.00 0.00 0.00 45 1078.3
20260506130803 22 123 12.9 25.7 0.00 0.00 0.00 45 1078.3
20260506130703 22 123 12.9 25.7 0.00 0.00 0.00 44 1078.2
20260506130617 22 123 12.9 25.7 0.00 0.00 0.00 45 1078.2
20260506130603 22 122 12.9 25.7 0.00 0.00 0.00 45 1078.4
20260506130517 22 123 11.3 25.7 0.00 0.00 0.00 45 1078.4
20260506130503 22 121 11.3 25.7 0.00 0.00 0.00 45 1078.3
20260506130418 22 118 11.3 25.7 0.00 0.00 0.00 45 1078.3
20260506130103 22 112 11.3 25.7 0.00 0.00 0.00 45 1078.4
20260506130004 22 113 11.3 25.7 0.00 0.00 0.00 45 1078.6
20260506125903 22 111 11.3 25.7 0.00 0.00 0.00 45 1078.5
20260506125803 22 110 9.7 24.1 0.00 0.00 0.00 44 1078.6
20260506125703 22 110 8.0 22.5 0.00 0.00 0.00 45 1078.5
20260506125603 22 111 8.0 22.5 0.00 0.00 0.00 44 1078.5
20260506125517 22 106 9.7 22.5 0.00 0.00 0.00 44 1078.5
20260506125503 22 106 9.7 22.5 0.00 0.00 0.00 44 1078.7
20260506125418 22 106 9.7 22.5 0.00 0.00 0.00 44 1078.7
20260506125403 22 107 9.7 22.5 0.00 0.00 0.00 45 1078.5
20260506125318 22 108 8.0 22.5 0.00 0.00 0.00 45 1078.5
20260506125003 22 109 6.4 22.5 0.00 0.00 0.00 46 1078.6
20260506124903 22 116 8.0 22.5 0.00 0.00 0.00 46 1078.7
20260506124803 22 117 8.0 22.5 0.00 0.00 0.00 46 1078.7
20260506124703 22 120 8.0 22.5 0.00 0.00 0.00 46 1078.7
20260506124603 22 122 8.0 22.5 0.00 0.00 0.00 45 1078.4
20260506124503 22 123 8.0 22.5 0.00 0.00 0.00 45 1078.6
20260506124403 22 121 9.7 22.5 0.00 0.00 0.00 46 1078.7
20260506124303 22 119 9.7 22.5 0.00 0.00 0.00 45 1078.8
20260506124203 22 119 9.7 22.5 0.00 0.00 0.00 45 1078.8
20260506124103 22 118 11.3 22.5 0.00 0.00 0.00 45 1078.8
20260506124003 22 118 11.3 22.5 0.00 0.00 0.00 45 1078.4
20260506123917 22 118 11.3 25.7 0.00 0.00 0.00 45 1078.7
20260506123903 22 118 11.3 25.7 0.00 0.00 0.00 45 1078.7
20260506123803 22 116 11.3 25.7 0.00 0.00 0.00 45 1078.8
20260506123718 21 115 11.3 25.7 0.00 0.00 0.00 46 1078.8
20260506123603 21 116 11.3 25.7 0.00 0.00 0.00 45 1078.7
20260506123517 22 118 11.3 25.7 0.00 0.00 0.00 45 1078.7
20260506123403 22 120 11.3 25.7 0.00 0.00 0.00 45 1078.8
20260506123318 22 121 11.3 25.7 0.00 0.00 0.00 45 1078.8
20260506123203 22 122 9.7 25.7 0.00 0.00 0.00 45 1078.8
20260506123003 22 117 11.3 25.7 0.00 0.00 0.00 44 1078.8
20260506122903 22 114 11.3 25.7 0.00 0.00 0.00 44 1078.8
20260506122803 22 112 9.7 22.5 0.00 0.00 0.00 45 1078.8
20260506122703 22 112 8.0 17.7 0.00 0.00 0.00 44 1078.8
20260506122603 22 109 8.0 17.7 0.00 0.00 0.00 45 1079.2
20260506122503 22 107 8.0 17.7 0.00 0.00 0.00 45 1079.0
20260506122403 22 103 8.0 17.7 0.00 0.00 0.00 45 1079.2
20260506122305 22 100 8.0 17.7 0.00 0.00 0.00 45 1078.7
20260506122203 22 101 8.0 17.7 0.00 0.00 0.00 46 1079.2
20260506122103 22 103 8.0 17.7 0.00 0.00 0.00 46 1079.0
20260506122018 22 109 8.0 20.9 0.00 0.00 0.00 46 1079.0
20260506122003 22 109 8.0 20.9 0.00 0.00 0.00 46 1079.0
20260506121903 22 106 8.0 20.9 0.00 0.00 0.00 46 1079.2
20260506121703 22 107 9.7 20.9 0.00 0.00 0.00 46 1078.9
20260506121618 22 106 9.7 20.9 0.00 0.00 0.00 46 1078.9
20260506121603 22 105 9.7 20.9 0.00 0.00 0.00 46 1079.0
20260506121503 22 104 9.7 20.9 0.00 0.00 0.00 46 1079.2
20260506121303 22 101 11.3 27.4 0.00 0.00 0.00 45 1079.0
20260506121217 22 98 11.3 27.4 0.00 0.00 0.00 45 1079.0
20260506121203 22 98 11.3 27.4 0.00 0.00 0.00 45 1078.9
20260506121103 22 95 11.3 27.4 0.00 0.00 0.00 44 1079.0
20260506120903 22 91 11.3 27.4 0.00 0.00 0.00 45 1079.0
20260506120803 22 90 11.3 27.4 0.00 0.00 0.00 45 1079.0
20260506120703 22 88 11.3 27.4 0.00 0.00 0.00 44 1079.0
20260506120603 22 87 11.3 27.4 0.00 0.00 0.00 44 1079.0
20260506120503 23 89 11.3 27.4 0.00 0.00 0.00 44 1079.2
20260506120403 23 91 11.3 27.4 0.00 0.00 0.00 43 1079.2
20260506120303 23 93 9.7 25.7 0.00 0.00 0.00 42 1079.0
20260506120203 23 99 9.7 25.7 0.00 0.00 0.00 43 1079.0
20260506120103 23 104 9.7 25.7 0.00 0.00 0.00 42 1079.2
20260506120003 23 106 9.7 25.7 0.00 0.00 0.00 42 1078.8
20260506115903 23 108 8.0 25.7 0.00 0.00 0.00 42 1078.9
20260506115817 23 112 8.0 25.7 0.00 0.00 0.00 42 1078.9
20260506115803 23 112 8.0 25.7 0.00 0.00 0.00 42 1079.2
20260506115703 23 114 8.0 25.7 0.00 0.00 0.00 41 1079.0
20260506115503 23 114 8.0 25.7 0.00 0.00 0.00 42 1079.3
20260506115403 23 115 8.0 25.7 0.00 0.00 0.00 42 1079.3
20260506115306 23 112 8.0 25.7 0.00 0.00 0.00 42 1079.4
20260506115203 23 108 8.0 25.7 0.00 0.00 0.00 42 1078.9
20260506115103 23 107 6.4 16.1 0.00 0.00 0.00 43 1079.2
20260506115003 23 109 8.0 16.1 0.00 0.00 0.00 42 1078.9
20260506114918 23 111 6.4 16.1 0.00 0.00 0.00 42 1078.9
20260506114903 23 111 6.4 16.1 0.00 0.00 0.00 42 1079.0
20260506114817 23 111 8.0 16.1 0.00 0.00 0.00 42 1079.0
20260506114803 23 111 8.0 16.1 0.00 0.00 0.00 42 1078.9
20260506114503 23 134 6.4 16.1 0.00 0.00 0.00 43 1079.0
20260506114417 23 136 6.4 16.1 0.00 0.00 0.00 44 1079.0
20260506114403 23 137 6.4 16.1 0.00 0.00 0.00 44 1079.3
20260506114303 23 144 6.4 16.1 0.00 0.00 0.00 44 1079.2
20260506114103 23 150 6.4 14.5 0.00 0.00 0.00 44 1079.0
20260506114003 23 149 6.4 14.5 0.00 0.00 0.00 43 1079.0
20260506113903 23 150 6.4 14.5 0.00 0.00 0.00 43 1079.2
20260506113803 23 151 6.4 14.5 0.00 0.00 0.00 42 1079.3
20260506113717 23 149 6.4 14.5 0.00 0.00 0.00 43 1079.3
20260506113703 23 147 6.4 14.5 0.00 0.00 0.00 43 1079.0
20260506113603 23 136 6.4 16.1 0.00 0.00 0.00 42 1079.2
20260506113517 23 132 6.4 16.1 0.00 0.00 0.00 43 1079.2
20260506113417 23 131 6.4 16.1 0.00 0.00 0.00 43 1079.0
20260506113403 23 131 6.4 16.1 0.00 0.00 0.00 43 1079.2
20260506113103 23 127 6.4 16.1 0.00 0.00 0.00 43 1079.3
20260506113003 23 121 6.4 16.1 0.00 0.00 0.00 45 1079.2
20260506112918 23 114 6.4 16.1 0.00 0.00 0.00 45 1079.2
20260506112903 23 114 6.4 16.1 0.00 0.00 0.00 44 1079.2
20260506112803 23 108 6.4 16.1 0.00 0.00 0.00 44 1079.4
20260506112603 23 102 6.4 14.5 0.00 0.00 0.00 43 1079.2
20260506112503 23 100 6.4 14.5 0.00 0.00 0.00 44 1079.2
20260506112403 23 100 8.0 17.7 0.00 0.00 0.00 44 1079.5
20260506112305 23 97 8.0 17.7 0.00 0.00 0.00 43 1079.5
20260506112218 23 96 8.0 17.7 0.00 0.00 0.00 42 1079.5
20260506112203 23 96 8.0 17.7 0.00 0.00 0.00 42 1079.4
20260506112103 23 96 8.0 17.7 0.00 0.00 0.00 43 1079.6
20260506111903 23 101 8.0 17.7 0.00 0.00 0.00 42 1079.2
20260506111803 23 104 8.0 17.7 0.00 0.00 0.00 43 1079.5
20260506111703 23 104 8.0 17.7 0.00 0.00 0.00 42 1079.4
20260506111603 23 105 9.7 17.7 0.00 0.00 0.00 43 1079.5
20260506111503 23 109 8.0 17.7 0.00 0.00 0.00 43 1079.4
20260506111403 23 111 8.0 17.7 0.00 0.00 0.00 42 1079.5
20260506111303 23 112 8.0 17.7 0.00 0.00 0.00 43 1079.5
20260506111203 23 113 9.7 17.7 0.00 0.00 0.00 44 1079.6
20260506111103 23 116 9.7 17.7 0.00 0.00 0.00 43 1079.5
20260506111017 23 115 9.7 17.7 0.00 0.00 0.00 44 1079.5
20260506111003 23 115 9.7 17.7 0.00 0.00 0.00 44 1079.7
20260506110918 23 117 9.7 17.7 0.00 0.00 0.00 44 1079.7
20260506110903 23 116 9.7 17.7 0.00 0.00 0.00 44 1079.5
20260506110603 24 116 11.3 24.1 0.00 0.00 0.00 42 1079.2
20260506110503 24 114 11.3 24.1 0.00 0.00 0.00 42 1079.8
20260506110403 24 116 11.3 24.1 0.00 0.00 0.00 42 1079.5
20260506110303 24 119 11.3 24.1 0.00 0.00 0.00 42 1079.5
20260506110203 25 119 11.3 24.1 0.00 0.00 0.00 42 1079.5
20260506110117 25 116 11.3 24.1 0.00 0.00 0.00 42 1079.5
20260506110103 25 117 11.3 24.1 0.00 0.00 0.00 42 1079.5
20260506110003 25 116 11.3 24.1 0.00 0.00 0.00 42 1079.8
20260506105803 25 119 11.3 24.1 0.00 0.00 0.00 41 1079.4
20260506105717 25 120 11.3 24.1 0.00 0.00 0.00 42 1079.4
20260506105703 25 120 11.3 24.1 0.00 0.00 0.00 42 1079.5
20260506105603 25 120 9.7 24.1 0.00 0.00 0.00 42 1079.7
20260506105403 25 112 9.7 22.5 0.00 0.00 0.00 43 1079.6
20260506105305 25 106 8.0 22.5 0.00 0.00 0.00 43 1079.3
20260506105203 25 99 8.0 22.5 0.00 0.00 0.00 44 1079.7
20260506105103 24 100 8.0 16.1 0.00 0.00 0.00 44 1079.7
20260506105003 24 102 8.0 16.1 0.00 0.00 0.00 43 1079.6
20260506104903 24 103 6.4 16.1 0.00 0.00 0.00 43 1079.7
20260506104803 24 107 8.0 20.9 0.00 0.00 0.00 43 1079.9
20260506104703 24 108 8.0 20.9 0.00 0.00 0.00 43 1079.4
20260506104618 24 111 8.0 20.9 0.00 0.00 0.00 43 1079.4
20260506104603 24 111 8.0 20.9 0.00 0.00 0.00 43 1079.8
20260506104503 24 110 8.0 22.5 0.00 0.00 0.00 43 1079.6
20260506104303 24 112 9.7 25.7 0.00 0.00 0.00 44 1079.7
20260506104203 24 115 9.7 25.7 0.00 0.00 0.00 44 1079.6
20260506104103 24 118 9.7 25.7 0.00 0.00 0.00 44 1079.7
20260506104003 24 114 9.7 25.7 0.00 0.00 0.00 44 1079.6
20260506103903 24 112 9.7 25.7 0.00 0.00 0.00 44 1079.7
20260506103803 24 108 9.7 25.7 0.00 0.00 0.00 44 1079.6
20260506103703 24 102 9.7 25.7 0.00 0.00 0.00 45 1079.5
20260506103618 23 100 9.7 25.7 0.00 0.00 0.00 45 1079.5
20260506103603 23 99 9.7 25.7 0.00 0.00 0.00 45 1079.8
20260506103503 23 101 9.7 25.7 0.00 0.00 0.00 45 1079.7
20260506103303 23 106 9.7 22.5 0.00 0.00 0.00 47 1079.7
20260506103203 23 103 8.0 22.5 0.00 0.00 0.00 47 1079.8
20260506103103 23 102 8.0 22.5 0.00 0.00 0.00 46 1079.6
20260506103003 23 104 8.0 22.5 0.00 0.00 0.00 47 1079.8
20260506102903 23 107 8.0 22.5 0.00 0.00 0.00 46 1079.6
20260506102803 23 104 8.0 22.5 0.00 0.00 0.00 47 1079.8
20260506102703 23 108 8.0 22.5 0.00 0.00 0.00 46 1079.7
20260506102603 23 110 8.0 22.5 0.00 0.00 0.00 46 1080.0
20260506102518 23 112 6.4 17.7 0.00 0.00 0.00 46 1080.0
20260506102503 23 113 6.4 17.7 0.00 0.00 0.00 46 1079.9
20260506102403 23 117 6.4 17.7 0.00 0.00 0.00 47 1079.6
20260506102203 23 126 6.4 17.7 0.00 0.00 0.00 48 1079.8
20260506102117 22 125 6.4 17.7 0.00 0.00 0.00 47 1079.8
20260506102104 22 126 6.4 17.7 0.00 0.00 0.00 47 1079.8
20260506102003 22 134 6.4 17.7 0.00 0.00 0.00 47 1079.8
20260506101803 22 141 6.4 16.1 0.00 0.00 0.00 46 1079.6
20260506101703 22 146 6.4 16.1 0.00 0.00 0.00 46 1079.6
20260506101617 22 147 8.0 20.9 0.00 0.00 0.00 47 1079.6
20260506101603 22 145 8.0 20.9 0.00 0.00 0.00 47 1079.5
20260506101503 22 139 8.0 20.9 0.00 0.00 0.00 47 1079.5
20260506101303 22 127 8.0 20.9 0.00 0.00 0.00 46 1079.4
20260506101203 22 118 8.0 20.9 0.00 0.00 0.00 47 1079.7
20260506101103 22 118 8.0 20.9 0.00 0.00 0.00 46 1079.4
20260506101003 23 120 9.7 20.9 0.00 0.00 0.00 45 1079.7
20260506100903 23 118 9.7 20.9 0.00 0.00 0.00 45 1079.7
20260506100803 23 116 9.7 20.9 0.00 0.00 0.00 45 1079.8
20260506100703 23 110 9.7 20.9 0.00 0.00 0.00 45 1079.7
20260506100603 23 109 9.7 20.9 0.00 0.00 0.00 45 1079.7
20260506100503 23 119 9.7 25.7 0.00 0.00 0.00 45 1079.6
20260506100403 23 130 9.7 25.7 0.00 0.00 0.00 45 1079.9
20260506100303 24 132 9.7 25.7 0.00 0.00 0.00 45 1079.8
20260506100203 23 139 8.0 25.7 0.00 0.00 0.00 46 1079.8
20260506100004 23 145 8.0 25.7 0.00 0.00 0.00 46 1079.8
20260506095903 23 148 8.0 25.7 0.00 0.00 0.00 46 1080.0
20260506095803 23 151 8.0 25.7 0.00 0.00 0.00 44 1079.9
20260506095703 23 157 6.4 25.7 0.00 0.00 0.00 44 1080.1
20260506095603 23 155 6.4 25.7 0.00 0.00 0.00 44 1079.7
20260506095503 23 150 6.4 25.7 0.00 0.00 0.00 45 1079.6
20260506095403 23 144 6.4 16.1 0.00 0.00 0.00 46 1079.9
20260506095317 23 142 6.4 16.1 0.00 0.00 0.00 45 1079.9
20260506095305 23 144 6.4 16.1 0.00 0.00 0.00 45 1079.7
20260506095203 23 139 6.4 16.1 0.00 0.00 0.00 45 1079.6
20260506095003 23 119 6.4 16.1 0.00 0.00 0.00 46 1080.0
20260506094903 23 116 6.4 16.1 0.00 0.00 0.00 45 1079.5
20260506094803 23 117 8.0 22.5 0.00 0.00 0.00 45 1079.8
20260506094703 23 114 8.0 22.5 0.00 0.00 0.00 45 1079.9
20260506094603 24 109 8.0 22.5 0.00 0.00 0.00 45 1079.8
20260506094503 23 106 8.0 22.5 0.00 0.00 0.00 47 1080.0
20260506094403 23 106 8.0 22.5 0.00 0.00 0.00 46 1079.9
20260506094303 23 110 8.0 22.5 0.00 0.00 0.00 48 1080.0
20260506094203 23 115 8.0 22.5 0.00 0.00 0.00 47 1080.0
20260506094103 23 121 8.0 22.5 0.00 0.00 0.00 47 1079.8
20260506094003 23 133 6.4 22.5 0.00 0.00 0.00 46 1080.0
20260506093903 23 137 6.4 22.5 0.00 0.00 0.00 47 1080.0
20260506093803 23 141 6.4 17.7 0.00 0.00 0.00 47 1079.8
20260506093703 23 145 6.4 17.7 0.00 0.00 0.00 48 1079.8
20260506093617 22 153 4.8 12.9 0.00 0.00 0.00 49 1079.8
20260506093603 22 153 4.8 12.9 0.00 0.00 0.00 49 1079.8
20260506093503 22 147 6.4 14.5 0.00 0.00 0.00 49 1080.0
20260506093417 22 135 6.4 16.1 0.00 0.00 0.00 48 1080.0
20260506093303 23 129 6.4 16.1 0.00 0.00 0.00 47 1080.0
20260506093103 23 118 8.0 16.1 0.00 0.00 0.00 48 1079.8
20260506093003 23 115 8.0 16.1 0.00 0.00 0.00 47 1079.9
20260506092903 23 114 8.0 16.1 0.00 0.00 0.00 47 1079.9
20260506092803 23 110 8.0 16.1 0.00 0.00 0.00 47 1079.9
20260506092717 23 112 8.0 16.1 0.00 0.00 0.00 47 1079.9
20260506092703 23 112 8.0 16.1 0.00 0.00 0.00 47 1079.9
20260506092603 23 110 9.7 16.1 0.00 0.00 0.00 47 1079.7
20260506092403 23 111 9.7 24.1 0.00 0.00 0.00 47 1080.0
20260506092317 23 112 9.7 24.1 0.00 0.00 0.00 47 1080.0
20260506092305 23 112 9.7 24.1 0.00 0.00 0.00 47 1079.8
20260506092217 23 111 9.7 24.1 0.00 0.00 0.00 47 1079.8
20260506092203 23 111 9.7 24.1 0.00 0.00 0.00 48 1080.0
20260506091903 23 109 11.3 24.1 0.00 0.00 0.00 47 1079.9
20260506091803 23 111 11.3 24.1 0.00 0.00 0.00 47 1079.7
20260506091703 23 111 11.3 24.1 0.00 0.00 0.00 46 1080.0
20260506091603 23 113 9.7 24.1 0.00 0.00 0.00 47 1079.8
20260506091518 23 116 9.7 24.1 0.00 0.00 0.00 48 1079.8
20260506091503 23 116 9.7 24.1 0.00 0.00 0.00 48 1079.7
20260506091403 23 120 9.7 20.9 0.00 0.00 0.00 49 1079.8
20260506091317 22 118 9.7 20.9 0.00 0.00 0.00 49 1079.8
20260506091203 22 119 8.0 16.1 0.00 0.00 0.00 49 1079.8
20260506091017 22 116 8.0 16.1 0.00 0.00 0.00 49 1079.7
20260506091003 22 117 8.0 16.1 0.00 0.00 0.00 49 1079.9
20260506090918 22 116 8.0 16.1 0.00 0.00 0.00 50 1079.9
20260506090903 22 117 8.0 16.1 0.00 0.00 0.00 50 1079.8
20260506090617 22 117 6.4 16.1 0.00 0.00 0.00 51 1080.0
20260506090603 22 117 6.4 16.1 0.00 0.00 0.00 51 1079.9
20260506090503 22 116 4.8 16.1 0.00 0.00 0.00 51 1079.8
20260506090418 22 113 4.8 14.5 0.00 0.00 0.00 51 1079.8
20260506090303 21 123 4.8 16.1 0.00 0.00 0.00 53 1079.9
20260506090123 21 135 4.8 16.1 0.00 0.00 0.00 53 1079.8
20260506090006 21 142 4.8 16.1 0.00 0.00 0.00 52 1079.9
20260506085803 21 164 6.4 16.1 0.00 0.00 0.00 52 1079.7
20260506085722 21 167 6.4 16.1 0.00 0.00 0.00 52 1079.7
20260506085428 21 172 6.4 16.1 0.00 0.00 0.00 50 1079.9
20260506085329 21 169 6.4 16.1 0.00 0.00 0.00 50 1079.7
20260506085203 21 159 6.4 16.1 0.00 0.00 0.00 49 1079.9
20260506085118 22 160 6.4 16.1 0.00 0.00 0.00 48 1079.9
20260506085103 22 161 6.4 16.1 0.00 0.00 0.00 48 1080.0
20260506085016 22 162 6.4 16.1 0.00 0.00 0.00 48 1080.0
20260506085003 22 160 6.4 16.1 0.00 0.00 0.00 48 1079.6
20260506084703 22 154 4.8 16.1 0.00 0.00 0.00 49 1079.7
20260506084603 22 147 4.8 16.1 0.00 0.00 0.00 50 1079.8
20260506084503 22 145 4.8 12.9 0.00 0.00 0.00 51 1079.8
20260506084403 21 141 4.8 12.9 0.00 0.00 0.00 51 1079.6
20260506084303 21 149 4.8 11.3 0.00 0.00 0.00 52 1079.9
20260506084203 21 161 3.2 11.3 0.00 0.00 0.00 53 1079.9
20260506084118 21 160 3.2 11.3 0.00 0.00 0.00 53 1079.9
20260506084103 21 162 3.2 11.3 0.00 0.00 0.00 52 1079.9
20260506084003 21 168 4.8 11.3 0.00 0.00 0.00 53 1080.0
20260506083917 21 165 4.8 11.3 0.00 0.00 0.00 53 1080.0
20260506083803 20 154 4.8 11.3 0.00 0.00 0.00 57 1079.8
20260506083603 20 157 4.8 11.3 0.00 0.00 0.00 57 1079.8
20260506083503 20 158 4.8 11.3 0.00 0.00 0.00 56 1079.8
20260506083403 20 163 4.8 11.3 0.00 0.00 0.00 56 1079.7
20260506083317 19 165 4.8 11.3 0.00 0.00 0.00 56 1080.2
20260506083303 19 166 4.8 12.9 0.00 0.00 0.00 56 1080.2
20260506083017 19 159 4.8 12.9 0.00 0.00 0.00 56 1080.2
20260506083003 19 158 4.8 12.9 0.00 0.00 0.00 56 1080.2
20260506082903 19 161 4.8 12.9 0.00 0.00 0.00 55 1080.1
20260506082703 20 166 4.8 12.9 0.00 0.00 0.00 54 1079.9
20260506082603 20 173 4.8 12.9 0.00 0.00 0.00 54 1079.8
20260506082503 20 183 6.4 12.9 0.00 0.00 0.00 53 1080.0
20260506082403 20 179 6.4 16.1 0.00 0.00 0.00 53 1079.9
20260506082305 20 176 6.4 16.1 0.00 0.00 0.00 53 1079.7
20260506082203 20 180 6.4 16.1 0.00 0.00 0.00 52 1080.0
20260506082103 20 180 6.4 16.1 0.00 0.00 0.00 52 1080.0
20260506082003 20 187 6.4 16.1 0.00 0.00 0.00 52 1079.8
20260506081903 20 187 6.4 16.1 0.00 0.00 0.00 51 1079.9
20260506081803 21 186 6.4 16.1 0.00 0.00 0.00 51 1079.9
20260506081703 21 181 6.4 16.1 0.00 0.00 0.00 51 1079.7
20260506081603 21 177 6.4 16.1 0.00 0.00 0.00 51 1080.1
20260506081503 21 173 6.4 16.1 0.00 0.00 0.00 52 1079.9
20260506081403 21 182 4.8 14.5 0.00 0.00 0.00 52 1079.8
20260506081303 21 188 4.8 14.5 0.00 0.00 0.00 53 1080.0
20260506081203 21 191 4.8 14.5 0.00 0.00 0.00 53 1080.0
20260506081103 21 190 4.8 14.5 0.00 0.00 0.00 53 1079.9
20260506081003 21 182 4.8 14.5 0.00 0.00 0.00 54 1079.8
20260506080903 20 181 4.8 14.5 0.00 0.00 0.00 54 1080.0
20260506080803 20 184 4.8 14.5 0.00 0.00 0.00 54 1079.9
20260506080703 20 188 4.8 14.5 0.00 0.00 0.00 54 1080.0
20260506080603 20 180 4.8 14.5 0.00 0.00 0.00 54 1079.9
20260506080503 20 173 4.8 11.3 0.00 0.00 0.00 56 1079.9
20260506080403 20 163 4.8 11.3 0.00 0.00 0.00 57 1080.0
20260506080316 20 155 4.8 11.3 0.00 0.00 0.00 57 1080.0
20260506080303 20 155 4.8 11.3 0.00 0.00 0.00 57 1079.7
20260506080203 19 156 4.8 11.3 0.00 0.00 0.00 58 1079.8
20260506073403 18 231 3.2 11.3 0.00 0.00 0.00 57 1079.9
20260506073303 19 228 3.2 11.3 0.00 0.00 0.00 57 1079.8
20260506073203 19 224 3.2 11.3 0.00 0.00 0.00 56 1079.8
20260506073103 19 218 3.2 9.7 0.00 0.00 0.00 56 1080.0
20260506073003 20 229 3.2 9.7 0.00 0.00 0.00 56 1080.1
20260506072903 20 234 3.2 9.7 0.00 0.00 0.00 55 1079.9
20260506072803 20 239 3.2 11.3 0.00 0.00 0.00 55 1079.7
20260506072718 20 241 3.2 11.3 0.00 0.00 0.00 54 1079.7
20260506072703 20 241 3.2 11.3 0.00 0.00 0.00 54 1079.9
20260506072603 20 238 3.2 11.3 0.00 0.00 0.00 54 1079.9
20260506072403 20 233 3.2 11.3 0.00 0.00 0.00 55 1080.0
20260506072305 20 235 3.2 11.3 0.00 0.00 0.00 55 1080.0
20260506072203 20 240 3.2 11.3 0.00 0.00 0.00 55 1079.7
20260506072103 20 240 3.2 11.3 0.00 0.00 0.00 55 1079.8
20260506072003 20 233 3.2 11.3 0.00 0.00 0.00 55 1079.9
20260506071917 20 226 3.2 11.3 0.00 0.00 0.00 55 1079.9
20260506071903 20 223 3.2 11.3 0.00 0.00 0.00 55 1080.0
20260506071803 20 219 3.2 11.3 0.00 0.00 0.00 55 1079.7
20260506071616 20 230 4.8 12.9 0.00 0.00 0.00 56 1080.0
20260506071603 20 235 4.8 12.9 0.00 0.00 0.00 58 1080.0
20260506071517 20 241 4.8 12.9 0.00 0.00 0.00 58 1080.0
20260506071503 20 243 4.8 12.9 0.00 0.00 0.00 57 1079.9
20260506071203 20 248 6.4 17.7 0.00 0.00 0.00 58 1079.8
20260506071103 19 247 6.4 17.7 0.00 0.00 0.00 58 1079.8
20260506071003 19 245 6.4 17.7 0.00 0.00 0.00 58 1079.8
20260506070903 19 246 6.4 17.7 0.00 0.00 0.00 57 1079.9
20260506070803 19 248 6.4 17.7 0.00 0.00 0.00 58 1079.9
20260506070703 19 251 6.4 17.7 0.00 0.00 0.00 58 1079.8
20260506070603 19 248 6.4 17.7 0.00 0.00 0.00 58 1079.8
20260506070503 19 247 6.4 17.7 0.00 0.00 0.00 57 1079.9
20260506070403 19 244 4.8 17.7 0.00 0.00 0.00 58 1079.8
20260506070303 20 243 4.8 17.7 0.00 0.00 0.00 58 1080.0
20260506070203 20 235 4.8 12.9 0.00 0.00 0.00 58 1079.8
20260506070103 20 239 4.8 12.9 0.00 0.00 0.00 58 1080.0
20260506062503 17 179 1.6 9.7 0.00 0.00 0.00 67 1079.9
20260506062403 17 191 1.6 9.7 0.00 0.00 0.00 68 1079.7
20260506062305 17 215 1.6 6.4 0.00 0.00 0.00 68 1079.7
20260506062203 17 220 1.6 6.4 0.00 0.00 0.00 69 1079.8
20260506062103 17 256 1.6 9.7 0.00 0.00 0.00 70 1079.5
20260506062003 16 286 1.6 9.7 0.00 0.00 0.00 71 1079.6
20260506061903 16 277 1.6 9.7 0.00 0.00 0.00 72 1079.7
20260506061803 16 270 1.6 9.7 0.00 0.00 0.00 75 1079.7
20260506061717 16 260 3.2 9.7 0.00 0.00 0.00 74 1079.7
20260506061703 16 259 3.2 9.7 0.00 0.00 0.00 74 1079.7
20260506061603 15 259 3.2 9.7 0.00 0.00 0.00 75 1079.6
20260506061403 15 258 4.8 11.3 0.00 0.00 0.00 75 1079.4
20260506061318 15 256 4.8 11.3 0.00 0.00 0.00 75 1079.4
20260506061303 15 256 4.8 11.3 0.00 0.00 0.00 75 1079.5
20260506061203 15 260 4.8 11.3 0.00 0.00 0.00 75 1079.5
20260506061117 15 254 4.8 11.3 0.00 0.00 0.00 75 1079.5
20260506061003 15 251 4.8 11.3 0.00 0.00 0.00 75 1079.6
20260506060817 15 245 3.2 11.3 0.00 0.00 0.00 76 1079.6
20260506060803 15 243 3.2 11.3 0.00 0.00 0.00 76 1079.5
20260506060717 14 240 3.2 11.3 0.00 0.00 0.00 76 1079.5
20260506060703 14 239 3.2 11.3 0.00 0.00 0.00 76 1079.6
20260506060403 14 203 3.2 12.9 0.00 0.00 0.00 77 1079.6
20260506060303 14 202 3.2 12.9 0.00 0.00 0.00 77 1079.6
20260506060204 14 197 3.2 12.9 0.00 0.00 0.00 78 1079.8
20260506051403 13 237 4.8 12.9 0.00 0.00 0.00 83 1079.5
20260506051203 13 241 4.8 11.3 0.00 0.00 0.00 83 1079.6
20260506051103 13 237 4.8 11.3 0.00 0.00 0.00 83 1079.6
20260506051003 13 235 3.2 11.3 0.00 0.00 0.00 83 1079.5
20260506050903 13 235 3.2 11.3 0.00 0.00 0.00 83 1079.5
20260506050803 13 231 3.2 11.3 0.00 0.00 0.00 83 1079.5
20260506050703 13 230 3.2 11.3 0.00 0.00 0.00 83 1079.6
20260506050603 13 226 3.2 11.3 0.00 0.00 0.00 83 1079.3
20260506050503 13 215 3.2 6.4 0.00 0.00 0.00 83 1079.4
20260506050403 13 207 1.6 6.4 0.00 0.00 0.00 83 1079.5
20260506050303 13 196 1.6 6.4 0.00 0.00 0.00 83 1079.2
20260506050203 13 189 1.6 4.8 0.00 0.00 0.00 84 1079.4
20260506050116 13 185 1.6 4.8 0.00 0.00 0.00 84 1079.6
20260506050103 13 183 1.6 4.8 0.00 0.00 0.00 84 1079.6
20260506045103 14 196 1.6 4.8 0.00 0.00 0.00 88 1079.2
20260506045003 14 193 1.6 4.8 0.00 0.00 0.00 89 1078.9
20260506044903 13 194 1.6 4.8 0.00 0.00 0.00 89 1079.2
20260506044803 13 193 1.6 6.4 0.00 0.00 0.00 89 1079.2
20260506044703 13 191 1.6 6.4 0.00 0.00 0.00 89 1079.4
20260506044603 13 182 1.6 6.4 0.00 0.00 0.00 90 1079.0
20260506044503 13 175 1.6 9.7 0.00 0.00 0.00 91 1079.2
20260506044403 13 176 1.6 9.7 0.00 0.00 0.00 91 1079.0
20260506044303 13 181 1.6 9.7 0.00 0.00 0.00 91 1079.0
20260506044203 13 184 3.2 9.7 0.00 0.00 0.00 91 1078.9
20260506044103 13 182 3.2 9.7 0.00 0.00 0.00 91 1078.8
20260506044003 12 180 3.2 9.7 0.00 0.00 0.00 92 1079.2
20260506043903 12 181 3.2 9.7 0.00 0.00 0.00 92 1079.2
20260506043803 12 181 3.2 9.7 0.00 0.00 0.00 91 1079.0
20260506043703 12 180 3.2 9.7 0.00 0.00 0.00 92 1078.9
20260506043617 12 185 3.2 9.7 0.00 0.00 0.00 93 1078.9
20260506043603 12 186 3.2 9.7 0.00 0.00 0.00 93 1079.2
20260506043503 12 189 3.2 9.7 0.00 0.00 0.00 93 1079.0
20260506043417 12 187 3.2 6.4 0.00 0.00 0.00 93 1079.0
20260506043303 12 186 3.2 6.4 0.00 0.00 0.00 93 1079.0
20260506043103 11 189 1.6 6.4 0.00 0.00 0.00 93 1079.0
20260506043003 11 193 1.6 6.4 0.00 0.00 0.00 93 1079.0
20260506042903 11 194 1.6 6.4 0.00 0.00 0.00 93 1078.8
20260506042818 11 190 1.6 6.4 0.00 0.00 0.00 93 1078.8
20260506042803 11 188 1.6 6.4 0.00 0.00 0.00 93 1079.2
20260506042703 11 185 1.6 6.4 0.00 0.00 0.00 93 1079.2
20260506042503 11 178 1.6 4.8 0.00 0.00 0.00 93 1078.7
20260506042417 11 188 1.6 4.8 0.00 0.00 0.00 93 1078.7
20260506042403 11 188 1.6 4.8 0.00 0.00 0.00 93 1078.8
20260506042305 11 179 1.6 4.8 0.00 0.00 0.00 93 1078.9
20260506042103 11 176 1.6 4.8 0.00 0.00 0.00 93 1078.9
20260506042003 11 174 1.6 4.8 0.00 0.00 0.00 93 1078.8
20260506041903 11 172 1.6 4.8 0.00 0.00 0.00 93 1079.0
20260506041803 11 178 1.6 4.8 0.00 0.00 0.00 93 1078.5
20260506041717 11 176 1.6 4.8 0.00 0.00 0.00 93 1078.5
20260506041703 11 176 1.6 4.8 0.00 0.00 0.00 93 1078.9
20260506041603 11 169 1.6 4.8 0.00 0.00 0.00 93 1078.9
20260506041518 11 169 1.6 4.8 0.00 0.00 0.00 94 1078.9
20260506041403 11 166 1.6 4.8 0.00 0.00 0.00 94 1078.9
20260506041218 11 161 1.6 4.8 0.00 0.00 0.00 93 1079.2
20260506041203 11 161 1.6 4.8 0.00 0.00 0.00 93 1078.7
20260506041103 11 160 1.6 4.8 0.00 0.00 0.00 93 1079.0
20260506040903 11 157 1.6 4.8 0.00 0.00 0.00 92 1078.8
20260506040803 11 151 1.6 4.8 0.00 0.00 0.00 92 1078.9
20260506040717 11 150 1.6 4.8 0.00 0.00 0.00 92 1078.9
20260506040703 11 151 1.6 4.8 0.00 0.00 0.00 92 1078.8
20260506040603 11 150 1.6 9.7 0.00 0.00 0.00 92 1078.6
20260506040403 11 142 1.6 9.7 0.00 0.00 0.00 92 1078.8
20260506040303 11 141 1.6 9.7 0.00 0.00 0.00 92 1078.7
20260506040203 11 141 1.6 9.7 0.00 0.00 0.00 92 1078.7
20260506040003 11 141 1.6 9.7 0.00 0.00 0.00 92 1078.6
20260506035903 11 140 1.6 9.7 0.00 0.00 0.00 92 1078.7
20260506035803 11 142 1.6 9.7 0.00 0.00 0.00 93 1078.6
20260506035703 11 147 3.2 9.7 0.00 0.00 0.00 92 1078.5
20260506035603 11 146 3.2 9.7 0.00 0.00 0.00 92 1078.6
20260506035503 11 149 1.6 4.8 0.00 0.00 0.00 92 1078.5
20260506035403 11 149 1.6 4.8 0.00 0.00 0.00 94 1078.6
20260506035305 11 154 3.2 4.8 0.00 0.00 0.00 92 1078.5
20260506035203 11 157 3.2 4.8 0.00 0.00 0.00 92 1078.5
20260506035103 11 163 3.2 4.8 0.00 0.00 0.00 91 1078.6
20260506035017 11 166 1.6 4.8 0.00 0.00 0.00 91 1078.6
20260506035003 11 167 1.6 4.8 0.00 0.00 0.00 91 1078.6
20260506034917 11 170 1.6 4.8 0.00 0.00 0.00 91 1078.6
20260506034903 11 169 1.6 4.8 0.00 0.00 0.00 91 1078.8
20260506034717 11 165 1.6 4.8 0.00 0.00 0.00 91 1078.6
20260506034603 11 170 1.6 4.8 0.00 0.00 0.00 91 1078.7
20260506034403 11 195 1.6 3.2 0.00 0.00 0.00 91 1078.6
20260506034303 11 188 0.0 3.2 0.00 0.00 0.00 91 1078.6